     2.00           OBSERVATION DATA    G (GPS)             RINEX VERSION / TYPE
teqc 1999Jun29 Lou Estey 19990629 16:09:06UTC               PGM / RUN BY / DATE
Solaris 2.6|Pentium II|cc SC4.2|=+|486/DX+                  COMMENT
BIT 2 OF LLI FLAGS DATA COLLECTED UNDER A/S CONDITION       COMMENT
                                                            MARKER NAME
                                                            OBSERVER / AGENCY
                                                            REC # / TYPE / VERS
                                                            ANT # / TYPE
        0.0000        0.0000        0.0000                  APPROX POSITION XYZ
        0.0000        0.0000        0.0000                  ANTENNA: DELTA H/E/N
     1     1                                                WAVELENGTH FACT L1/2
     5    L1    L2    C1    P1    P2                        # / TYPES OF OBSERV
  1997     6    10     3     0   11.0000000     GPS         TIME OF FIRST OBS
                                                            END OF HEADER
 97  6 10  3  0 11.0000000  0  8G21G17G23G25G 3G31G 9G 1
   -838157.90049   -648525.24847  20975634.8264   20975634.9994   20975640.1094
   2053327.90747   1590591.08145  25098293.2464   25098292.6844   25098302.3414
    640684.00748    496868.56646  23360983.0604   23360983.6074   23360992.4384
  -4938141.95747  -3825559.89045  24694564.8554   24694564.7994   24694568.6604
   1027995.57048    797917.90546  22547635.5014   22547634.7954   22547640.8314
   -953870.98648   -737064.95746  22200690.0894   22200689.2574   22200692.9064
     79168.62546     74767.03745  24560379.7024   24560380.3744   24560376.9274
  -2127874.52349  -1479785.86347  20346742.4724   20346742.1634   20346746.5054
 97  6 10  3  0 12.0000000  0  8G21G17G23G25G 3G31G 9G 1
   -838832.23449   -649050.70447  20975506.5334   20975506.5814   20975511.8534
   2055376.66447   1592187.51645  25098683.0444   25098681.9734   25098691.5774
    641345.87248    497384.30946  23361109.1014   23361109.0484   23361118.6684
  -4942942.79247  -3829300.79545  24693651.4174   24693651.4504   24693655.2124
   1029182.70248    798842.94446  22547861.3604   22547861.7204   22547866.3004
   -954457.07048   -737521.64846  22200578.5904   22200577.6424   22200582.2854
     79492.36646     75019.29945  24560441.5344   24560442.0494   24560438.2044
  -2129602.53849  -1481132.36747  20346413.6594   20346413.3194   20346417.6374
 97  6 10  3  0 13.0000000  0  8G21G17G23G25G 3G31G 9G 1
   -839506.38649   -649576.01647  20975378.2394   20975378.3004   20975383.7994
   2057425.50047   1593784.00745  25099072.9364   25099071.4484   25099081.6064
    642007.74848    497900.06846  23361235.1084   23361235.0324   23361244.9234
  -4947743.76647  -3833041.81045  24692737.9514   24692737.2974   24692741.7534
   1030370.07648    799768.16346  22548087.2584   22548088.0514   22548092.0724
   -955042.61448   -737977.91446  22200467.2294   22200465.5674   22200470.3314
     79816.57646     75271.92845  24560503.5104   24560503.7244   24560500.3784
  -2131330.07749  -1482478.49947  20346084.9084   20346084.6334   20346088.7744
 97  6 10  3  0 14.0000000  0  8G21G17G23G25G 3G31G 9G 1
   -840180.47049   -650101.27747  20975249.9364   20975249.9474   20975255.4764
   2059474.26947   1595380.45045  25099462.8504   25099461.9864   25099470.4734
    642669.54848    498415.76146  23361361.0304   23361360.0454   23361371.5384
  -4952544.97847  -3836783.01245  24691824.4554   24691823.5634   24691828.0994
   1031557.60548    800693.50546  22548313.2134   22548314.2014   22548317.6104
   -955627.71348   -738433.83446  22200355.9054   22200354.4044   22200359.2464
     80141.18446     75524.86545  24560565.4374   24560565.3804   24560563.1794
  -2133057.22449  -1483824.33047  20345756.2514   20345755.9204   20345760.2024
 97  6 10  3  0 15.0000000  0  8G21G17G23G25G 3G31G 9G 1
   -840854.53049   -650626.51947  20975121.6734   20975121.7754   20975127.2244
   2061522.93947   1596976.81645  25099852.7274   25099851.8224   25099859.7534
    643331.20548    498931.33946  23361486.8454   23361485.1804   23361497.7394
  -4957346.49547  -3840524.45145  24690910.9124   24690910.0184   24690914.6074
   1032745.22848    801618.92546  22548539.1844   22548540.0434   22548544.0154
   -956212.41448   -738889.45646  22200244.6424   22200242.9824   22200247.4754
     80465.99946     75777.96645  24560627.0534   24560627.3074   24560624.4774
  -2134784.03849  -1485169.90047  20345427.6704   20345427.4044   20345431.5314
 97  6 10  3  0 16.0000000  0  8G21G17G23G25G 3G31G 9G 1
   -841528.28049   -651151.51747  20974993.5274   20974993.4294   20974998.9204
   2063571.78847   1598573.32245  25100242.6374   25100242.7034   25100249.8124
    643993.01348    499447.03846  23361612.6614   23361610.7074   23361623.8474
  -4962148.01047  -3844265.89245  24689997.3374   24689996.6964   24690001.3004
   1033933.23648    802544.65046  22548765.2274   22548765.8694   22548770.4004
   -956796.43648   -739344.53446  22200133.5314   22200131.7004   22200136.4044
     80791.46846     76031.57745  24560688.2324   24560689.1164   24560687.0924
  -2136510.23949  -1486514.99147  20345099.1984   20345098.9664   20345102.9694
 97  6 10  3  0 17.0000000  0  8G21G17G23G25G 3G31G 9G 1
   -842201.36649   -651675.99847  20974865.4994   20974865.2244   20974871.1364
   2065621.17947   1600170.24545  25100632.6814   25100632.4734   25100640.3504
    644655.33248    499963.12846  23361738.5834   23361737.1444   23361750.2894
  -4966949.18647  -3848007.06145  24689083.7724   24689083.3804   24689087.3564
   1035121.99048    803470.95046  22548991.4464   22548991.6314   22548996.9124
   -957379.42048   -739798.80346  22200022.5944   22200021.0264   22200026.0524
     81117.88146     76285.92645  24560749.1494   24560750.8994   24560747.4904
  -2138235.45149  -1487859.30847  20344770.8914   20344770.4074   20344774.8404
 97  6 10  3  0 18.0000000  0  8G21G17G23G25G 3G31G 9G 1
   -842873.90749   -652200.05747  20974737.5754   20974737.2114   20974742.9484
   2067671.00347   1601767.50845  25101022.8684   25101022.3274   25101030.8244
    645318.03748    500479.51746  23361864.7294   23361863.7144   23361876.2644
  -4971750.12647  -3851748.04945  24688170.2294   24688168.8314   24688173.6214
   1036311.37548    804397.74646  22549217.7314   22549218.1034   22549223.0664
   -957961.47248   -740252.35746  22199911.8694   22199910.8514   22199915.5844
     81445.10346     76540.90145  24560810.6044   24560813.2374   24560810.2664
  -2139959.80149  -1489202.96047  20344442.7684   20344442.2664   20344446.6374
 97  6 10  3  0 19.0000000  0  8G21G17G23G25G 3G31G 9G 1
   -843545.80749   -652723.61347  20974609.7384   20974609.5284   20974615.0124
   2069721.30847   1603365.14945  25101412.9414   25101412.1494   25101420.2684
    645981.23248    500996.28746  23361990.9834   23361990.2004   23362002.0064
  -4976550.75347  -3855488.79045  24687256.6954   24687255.3034   24687259.9164
   1037501.46748    805325.09346  22549444.1354   22549445.0714   22549449.2144
   -958542.50848   -740705.10946  22199801.3144   22199799.3954   22199804.5124
     81773.30046     76796.63945  24560872.6984   24560874.9064   24560873.9884
  -2141683.19649  -1490545.86347  20344114.8094   20344114.4004   20344118.7034
 97  6 10  3  0 20.0000000  0  8G21G17G23G25G 3G31G 9G 1
   -844217.35549   -653246.89947  20974481.9614   20974481.8464   20974487.1764
   2071771.86847   1604962.98845  25101803.0864   25101802.8834   25101809.8044
    646644.62248    501513.21146  23362117.2294   23362116.5474   23362128.0094
  -4981351.34147  -3859229.50645  24686343.1844   24686341.6954   24686347.0954
   1038692.00048    806252.77846  22549670.6514   22549671.7134   22549675.8714
   -959122.81948   -741157.30546  22199690.8894   22199689.3104   22199694.6504
     82102.10746     77052.85244  24560934.6674   24560936.9374   24560938.3494
  -2143405.91949  -1491888.24647  20343786.9724   20343786.6914   20343791.0064
 97  6 10  3  0 21.0000000  0  8G21G17G23G25G 3G31G 9G 1
   -844888.86249   -653770.15347  20974354.1944   20974353.9434   20974359.6044
   2073822.32247   1606560.74145  25102193.2004   25102193.1724   25102199.1704
    647307.89248    502030.04646  23362243.3684   23362243.0404   23362253.4984
  -4986152.19547  -3862970.42445  24685429.5334   24685428.3054   24685432.8534
   1039882.66448    807180.56846  22549897.1544   22549898.4224   22549902.7994
   -959702.71248   -741609.16446  22199580.5264   22199579.2064   22199584.0514
     82431.25646     77309.32944  24560996.6454   24560999.6954   24561001.4924
  -2145128.29049  -1493230.35447  20343459.2114   20343459.0064   20343463.1364
 97  6 10  3  0 22.0000000  0  8G21G17G23G25G 3G31G 9G 1
   -845560.42849   -654293.45247  20974226.4284   20974226.2904   20974231.6654
   2075872.56547   1608158.33345  25102583.2384   25102583.3254   25102589.0324
    647970.94648    502546.70746  23362369.4294   23362368.9944   23362379.2884
  -4990953.42047  -3866711.63445  24684515.7674   24684514.3464   24684519.6134
   1041073.34948    808108.37046  22550123.7164   22550125.0954   22550129.5464
   -960282.32948   -742060.81846  22199470.1974   22199469.1814   22199473.3464
     82760.57146     77565.94044  24561058.9834   24561060.3044   24561063.6834
  -2146850.39849  -1494572.25747  20343131.4864   20343131.0894   20343135.3244
 97  6 10  3  0 23.0000000  0  8G21G17G23G25G 3G31G 9G 1
   -846232.18749   -654816.90047  20974098.5744   20974098.2194   20974103.8634
   2077922.51547   1609755.69845  25102973.1574   25102973.1824   25102979.5974
    648633.63148    503063.08346  23362495.3844   23362495.3934   23362505.3524
  -4995755.13147  -3870453.22245  24683601.9444   24683600.5344   24683605.7964
   1042263.92748    809036.09246  22550350.3114   22550351.1884   22550356.0554
   -960861.75048   -742512.31746  22199359.9404   22199359.2294   22199362.7924
     83090.03346     77822.66244  24561121.7454   24561122.4584   24561126.8334
  -2148572.36849  -1495914.05347  20342803.7694   20342803.4824   20342807.6924
 97  6 10  3  0 24.0000000  0  8G21G17G23G25G 3G31G 9G 1
   -846903.75449   -655340.19847  20973970.7824   20973970.3354   20973976.1784
   2079972.52647   1611353.10545  25103363.2524   25103363.8514   25103369.8774
    649296.35548    503579.49446  23362621.4074   23362620.6884   23362630.9754
  -5000556.95447  -3874194.89945  24682688.0964   24682686.2214   24682691.7074
   1043454.80448    809964.04446  22550576.9534   22550577.3534   22550582.1454
   -961440.62648   -742963.38946  22199249.7524   22199248.4024   22199253.0404
     83419.95246     78079.74244  24561184.7694   24561184.5394   24561190.1214
  -2150293.82049  -1497255.44447  20342476.2074   20342475.9264   20342480.1214
 97  6 10  3  0 25.0000000  0  8G21G17G23G25G 3G31G 9G 1
   -847575.22149   -655863.41747  20973843.0544   20973842.7764   20973848.4384
   2082022.51147   1612950.49745  25103753.3304   25103754.3194   25103760.2574
    649959.00948    504095.84746  23362747.3834   23362746.4284   23362756.8674
  -5005358.96747  -3877936.72445  24681774.2114   24681772.3514   24681777.8814
   1044645.87248    810892.14846  22550803.7534   22550803.5654   22550808.9524
   -962018.97948   -743414.05246  22199139.6494   22199138.2324   22199143.5894
     83750.26846     78337.13944  24561247.9024   24561247.5064   24561252.2774
  -2152014.82949  -1498596.48747  20342148.7204   20342148.4634   20342152.6204
 97  6 10  3  0 26.0000000  0  8G21G17G23G25G 3G31G 9G 1
   -848246.33149   -656386.36147  20973715.3324   20973714.9094   20973720.5804
   2084072.75647   1614548.08545  25104143.4114   25104143.6554   25104150.7124
    650621.84648    504612.34246  23362873.4494   23362872.4284   23362882.9484
  -5010160.94047  -3881678.52145  24680860.2854   24680858.9604   24680864.2114
   1045837.41348    811820.62146  22551030.5684   22551030.6624   22551035.5934
   -962596.59048   -743864.13846  22199029.6414   22199027.8134   22199033.2454
     84081.25646     78595.05344  24561311.4204   24561309.9384   24561314.7654
  -2153735.14849  -1499936.99647  20341821.3934   20341821.1524   20341825.1454
 97  6 10  3  0 27.0000000  0  8G21G17G23G25G 3G31G 9G 1
   -848917.46049   -656909.31747  20973587.6014   20973587.2954   20973592.8934
   2086122.85247   1616145.56045  25104533.5134   25104533.6224   25104541.2644
    651284.53548    505128.72446  23362999.4294   23362998.7174   23363009.3034
  -5014963.21647  -3885420.54845  24679946.3534   24679945.7254   24679950.2274
   1047029.03048    812749.15646  22551257.3624   22551258.2074   22551262.1954
   -963173.83148   -744313.93446  22198919.7294   22198918.4544   22198923.2914
     84412.51946     78853.18244  24561374.9424   24561371.8554   24561378.5114
  -2155455.15949  -1501277.26347  20341494.1284   20341493.8564   20341497.8634
 97  6 10  3  0 28.0000000  0  8G21G17G23G25G 3G31G 9G 1
   -849587.92649   -657431.75847  20973460.0134   20973459.4984   20973465.3924
   2088173.50147   1617743.46545  25104923.7274   25104923.5034   25104931.6744
    651947.69348    505645.47146  23363125.5254   23363125.2754   23363135.9524
  -5019765.12547  -3889162.29045  24679032.4984   24679031.8364   24679036.3174
   1048221.41348    813678.28346  22551484.4004   22551484.8744   22551489.3024
   -963750.02648   -744762.91946  22198810.0124   22198808.3924   22198813.5014
     84744.71546     79112.03644  24561438.4554   24561435.1814   24561441.5624
  -2157174.16849  -1502616.75247  20341167.0344   20341166.6784   20341170.8064
 97  6 10  3  0 29.0000000  0  8G21G17G23G25G 3G31G 9G 1
   -850257.74849   -657953.69847  20973332.5794   20973332.0754   20973337.8634
   2090224.70047   1619341.79545  25105314.0204   25105313.6894   25105321.5494
    652611.34948    506162.60646  23363251.8674   23363251.7664   23363262.6014
  -5024566.68247  -3892903.75845  24678118.6744   24678118.3594   24678122.7014
   1049414.55548    814608.00346  22551711.5134   22551712.2664   22551716.8304
   -964325.18648   -745211.09746  22198700.4724   22198699.3014   22198703.9764
     85077.84446     79371.62344  24561502.2534   24561499.0454   24561504.6864
  -2158892.18549  -1503955.46447  20340840.1034   20340839.7864   20340843.8754
 97  6 10  3  0 30.0000000  0  8G21G17G23G25G 3G31G 9G 1
   -850926.92849   -658475.13647  20973205.2054   20973204.8744   20973210.2654
   2092276.42947   1620940.54245  25105704.4294   25105704.0074   25105711.7734
    653275.48348    506680.11546  23363378.3614   23363378.6894   23363389.0144
  -5029367.90047  -3896644.96545  24677204.8474   24677204.1424   24677209.2834
   1050608.44648    815538.30646  22551938.8064   22551938.9584   22551943.7464
   -964899.33848   -745658.48946  22198591.0384   22198590.0554   22198594.8414
     85411.82646     79631.87344  24561565.8714   24561562.8874   24561566.7074
  -2160609.22649  -1505293.41747  20340513.3714   20340512.9924   20340517.1684
 97  6 10  3  0 31.0000000  0  8G21G17G23G25G 3G31G 9G 1
   -851595.90749   -658996.42047  20973077.8444   20973077.6194   20973083.2684
   2094328.26047   1622539.37145  25106094.7954   25106094.1264   25106102.2894
    653939.64548    507197.64146  23363504.8664   23363504.8734   23363515.0854
  -5034169.16047  -3900386.20045  24676291.0544   24676290.8124   24676295.6594
   1051802.65548    816468.85546  22552166.0324   22552166.0784   22552171.2474
   -965472.87048   -746105.39946  22198481.7864   22198481.2334   22198486.2654
     85746.41146     79892.59044  24561629.3474   24561626.1374   24561630.2824
  -2162325.72949  -1506630.95447  20340186.7264   20340186.2204   20340190.3914
 97  6 10  3  0 32.0000000  0  8G21G17G23G25G 3G31G 9G 1
   -852265.19449   -659517.94247  20972950.4284   20972950.1684   20972955.9304
   2096379.71047   1624137.90145  25106485.1244   25106484.8714   25106492.5264
    654603.35848    507714.82546  23363631.2884   23363630.6444   23363641.1554
  -5038971.01147  -3904127.89845  24675377.0914   24675377.0264   24675382.5624
   1052996.67948    817399.26646  22552393.2514   22552393.1584   22552398.3004
   -966046.31748   -746552.24346  22198372.5494   22198372.0674   22198376.1044
     86080.90346     80153.23844  24561692.8664   24561690.4054   24561692.2714
  -2164042.19149  -1507968.45847  20339860.0714   20339859.7494   20339863.7484
 97  6 10  3  0 33.0000000  0  8G21G17G23G25G 3G31G 9G 1
   -852934.73449   -660039.66247  20972822.9934   20972822.7824   20972828.4044
   2098430.80647   1625736.15645  25106875.3624   25106874.4294   25106882.6894
    655266.65648    508231.68446  23363757.3214   23363757.0434   23363767.2674
  -5043773.37547  -3907869.99745  24674463.1304   24674462.8954   24674468.7644
   1054190.58448    818329.58246  22552620.3874   22552620.7614   22552625.4754
   -966619.62648   -746998.97746  22198263.3844   22198262.9344   22198267.4634
     86415.50946     80413.97344  24561756.3804   24561754.9324   24561754.8124
  -2165758.56549  -1509305.89247  20339533.4554   20339533.2384   20339537.4184
 97  6 10  3  0 34.0000000  0  8G21G17G23G25G 3G31G 9G 1
   -853604.28849   -660561.39247  20972695.5924   20972695.2434   20972701.0134
   2100481.78647   1627334.32045  25107265.5464   25107265.2924   25107273.0864
    655929.77548    508748.39946  23363883.0934   23363882.4724   23363893.0464
  -5048576.00547  -3911612.30645  24673549.1534   24673549.4654   24673554.4964
   1055384.58748    819259.97146  22552847.5894   22552847.6694   22552853.1404
   -967192.53748   -747445.40046  22198154.2994   22198153.5324   22198158.0464
     86750.38946     80674.92144  24561819.7944   24561819.2244   24561819.3124
  -2167474.62049  -1510643.07647  20339206.8974   20339206.4864   20339210.8564
 97  6 10  3  0 35.0000000  0  8G21G17G23G25G 3G31G 9G 1
   -854273.83049   -661083.11247  20972568.1484   20972567.8524   20972573.5114
   2102532.68647   1628932.41845  25107655.8124   25107655.3834   25107663.2764
    656592.73248    509264.99346  23364008.8754   23364008.9914   23364019.0194
  -5053378.90547  -3915354.82445  24672635.0584   24672635.4034   24672640.6544
   1056578.72348    820190.46846  22553074.8474   22553074.7904   22553079.6564
   -967765.05948   -747891.51946  22198045.2584   22198044.5754   22198049.4854
     87085.47546     80936.03544  24561883.3154   24561884.1864   24561883.0454
  -2169190.32649  -1511979.99047  20338880.4244   20338880.0704   20338884.3244
 97  6 10  3  0 36.0000000  0  8G21G17G23G25G 3G31G 9G 1
   -854942.95349   -661604.50647  20972440.7844   20972440.4414   20972446.3224
   2104583.92247   1630530.78345  25108046.1134   25108045.9834   25108053.5384
    657255.95248    509781.79246  23364134.7994   23364135.1674   23364144.6844
  -5058181.63747  -3919097.21145  24671721.0154   24671721.5954   24671726.5844
   1057773.39348    821121.38046  22553302.2074   22553302.3464   22553307.2534
   -968336.75248   -748336.99846  22197936.3824   22197935.4834   22197940.7194
     87421.39946     81197.80144  24561947.3934   24561948.1454   24561947.6824
  -2170905.26749  -1513316.30747  20338554.1074   20338553.7474   20338557.8884
 97  6 10  3  0 37.0000000  0  8G21G17G23G25G 3G31G 9G 1
   -855611.89549   -662125.76047  20972313.4624   20972313.2254   20972318.9594
   2106635.24447   1632129.21545  25108436.4114   25108436.0944   25108443.2534
    657919.18948    510298.60146  23364260.8004   23364261.6264   23364270.5564
  -5062984.44047  -3922839.65745  24670806.9164   24670806.8514   24670812.8704
   1058968.37048    822052.52946  22553529.6354   22553530.4934   22553534.5114
   -968907.86448   -748782.01946  22197827.5734   22197827.5434   22197832.3444
     87757.82046     81459.95144  24562011.5424   24562012.0534   24562012.1844
  -2172619.68549  -1514652.21847  20338227.8774   20338227.5594   20338231.5634
 97  6 10  3  0 38.0000000  0  8G21G17G23G25G 3G31G 9G 1
   -856280.63649   -662646.85847  20972186.1944   20972186.0164   20972191.8394
   2108686.67347   1633727.72945  25108826.8564   25108826.9004   25108833.8834
    658582.44248    510815.42046  23364387.0344   23364387.8304   23364396.5384
  -5067787.35147  -3926582.18745  24669892.8354   24669892.9244   24669898.6254
   1060163.67548    822983.93446  22553757.0684   22553758.0374   22553761.8084
   -969478.38448   -749226.57946  22197718.8414   22197718.3014   22197723.3844
     88094.66646     81722.43544  24562075.8464   24562076.3914   24562074.7664
  -2174333.57449  -1515987.71647  20337901.7374   20337901.3104   20337905.6714
 97  6 10  3  0 39.0000000  0  8G21G17G23G25G 3G31G 9G 1
   -856948.91949   -663167.59747  20972058.9854   20972058.8474   20972064.6244
   2110738.49147   1635326.54645  25109217.4164   25109217.1784   25109224.1454
    659246.03448    511332.50546  23364513.2174   23364513.8294   23364522.7494
  -5072590.03547  -3930324.54145  24668978.7844   24668979.1534   24668984.5344
   1061359.55948    823915.78946  22553984.6124   22553985.3554   22553989.1024
   -970048.05448   -749670.47746  22197610.3134   22197609.6314   22197615.1374
     88432.34846     81985.56744  24562140.6494   24562140.7124   24562139.1684
  -2176046.66449  -1517322.58947  20337575.7374   20337575.3094   20337579.4544
 97  6 10  3  0 40.0000000  0  8G21G17G23G25G 3G31G 9G 1
   -857616.65249   -663687.90747  20971931.8424   20971931.7574   20971937.6074
   2112790.77647   1636925.72645  25109608.0024   25109607.8574   25109614.8944
    659910.01948    511849.89846  23364639.5174   23364639.7344   23364649.4244
  -5077392.38747  -3934066.63045  24668064.8394   24668065.4074   24668070.8984
   1062556.15348    824848.19746  22554212.3784   22554212.4734   22554217.3584
   -970616.73648   -750113.60346  22197501.9534   22197502.1654   22197506.9154
     88770.87446     82249.36044  24562205.6684   24562205.6564   24562202.9604
  -2177758.86149  -1518656.76547  20337249.9314   20337249.6044   20337253.5854
 97  6 10  3  0 41.0000000  0  8G21G17G23G25G 3G31G 9G 1
   -858283.67749   -664207.66847  20971804.9024   20971804.9534   20971810.6644
   2114843.69446   1638525.40545  25109998.6644   25109998.7854   25110006.6914
    660574.56448    512367.73146  23364765.9724   23364766.5904   23364776.0214
  -5082194.27847  -3937808.35545  24667151.0054   24667151.7214   24667156.8824
   1063753.58348    825781.25646  22554440.3264   22554440.4754   22554445.3054
   -971184.31148   -750555.86946  22197393.7984   22197394.1954   22197399.1524
     89110.45846     82513.97744  24562271.0114   24562271.0064   24562267.2904
  -2179470.00149  -1519990.12247  20336924.2774   20336923.8524   20336928.2044
 97  6 10  3  0 42.0000000  0  8G21G17G23G25G 3G31G 9G 1
   -858950.63249   -664727.37547  20971678.0074   20971678.2724   20971683.8734
   2116896.59746   1640125.07045  25110389.4234   25110389.4104   25110397.0774
    661239.04448    512885.50646  23364892.3734   23364893.0404   23364903.6514
  -5086996.33047  -3941550.21045  24666237.0984   24666238.2014   24666242.8354
   1064951.23148    826714.49346  22554668.2144   22554668.1954   22554673.3324
   -971751.39148   -750997.74946  22197285.7994   22197285.8164   22197291.3344
     89450.40846     82778.88044  24562336.3984   24562335.3904   24562332.5424
  -2181180.72249  -1521323.15247  20336598.7264   20336598.5354   20336602.7774
 97  6 10  3  0 43.0000000  0  8G21G17G23G25G 3G31G 9G 1
   -859617.79149   -665247.23747  20971551.0944   20971551.2534   20971556.6864
   2118949.24846   1641724.53945  25110780.2214   25110779.8674   25110787.7284
    661903.17948    513403.01546  23365018.7234   23365019.1954   23365030.5814
  -5091798.80747  -3945292.39845  24665323.0994   24665324.3304   24665328.6904
   1066148.84648    827647.70246  22554896.1444   22554896.3024   22554900.9424
   -972318.24148   -751439.46146  22197177.8694   22197178.3814   22197183.0444
     89790.49146     83043.88444  24562401.9054   24562400.2204   24562397.0364
  -2182891.28149  -1522656.05647  20336273.2044   20336273.0544   20336277.2104
 97  6 10  3  0 44.0000000  0  8G21G17G23G25G 3G31G 9G 1
   -860285.10549   -665767.22647  20971424.1654   20971424.2694   20971430.0204
   2121001.67746   1643323.83245  25111171.0634   25111169.5394   25111177.9724
    662567.00348    513920.28346  23365144.9884   23365145.5964   23365157.2184
  -5096601.68947  -3949034.90545  24664409.0214   24664409.6044   24664415.1424
   1067346.43948    828580.88946  22555124.1014   22555124.4454   22555128.8124
   -972884.83848   -751880.96546  22197069.9914   22197069.9804   22197075.2164
     90130.72246     83309.00444  24562467.4274   24562464.8474   24562460.6344
  -2184601.67049  -1523988.82747  20335947.7204   20335947.5934   20335951.6334
 97  6 10  3  0 45.0000000  0  8G21G17G23G25G 3G31G 9G 1
   -860952.74349   -666287.46347  20971297.1724   20971297.3404   20971302.6754
   2123053.70146   1644922.81245  25111561.6904   25111561.1204   25111567.7724
    663230.37648    514437.19246  23365271.2184   23365271.4684   23365283.7654
  -5101405.12247  -3952777.83745  24663494.9254   24663495.8874   24663500.9414
   1068543.85448    829513.94846  22555351.9784   22555351.9984   22555356.7794
   -973451.33548   -752322.39146  22196962.0924   22196962.7774   22196967.6944
     90470.96246     83574.12344  24562532.6764   24562528.8544   24562525.6554
  -2186312.02549  -1525321.57147  20335622.2404   20335622.0774   20335626.1184
 97  6 10  3  0 46.0000000  0  8G21G17G23G25G 3G31G 9G 1
   -861620.22549   -666807.57847  20971170.2184   20971170.2084   20971175.6144
   2125105.82246   1646521.86945  25111952.2154   25111951.7034   25111957.8584
    663893.75748    514954.11546  23365397.5354   23365397.9714   23365409.7194
  -5106208.59747  -3956520.80145  24662580.7834   24662581.9374   24662587.1694
   1069741.57948    830447.23946  22555579.8844   22555580.3084   22555584.8104
   -974017.24048   -752763.35146  22196854.4284   22196854.9224   22196859.8644
     90811.69146     83839.62944  24562597.8054   24562594.5064   24562590.3164
  -2188021.87549  -1526653.92147  20335296.8794   20335296.6694   20335300.8054
 97  6 10  3  0 47.0000000  0  8G21G17G23G25G 3G31G 9G 1
   -862287.55749   -667327.57847  20971043.3004   20971043.3274   20971048.7034
   2127158.02146   1648120.98845  25112342.6154   25112342.3674   25112348.2434
    664557.17148    515471.05746  23365523.7504   23365524.1864   23365535.8774
  -5111012.18547  -3960263.85545  24661666.6344   24661667.7414   24661673.4534
   1070939.60048    831380.76146  22555807.8644   22555807.9624   22555812.4144
   -974582.59148   -753203.89046  22196746.9344   22196747.5924   22196752.2544
     91152.84346     84105.46444  24562663.0484   24562659.4394   24562655.9744
  -2189731.23549  -1527985.89047  20334971.6354   20334971.4174   20334975.5834
 97  6 10  3  0 48.0000000  0  8G21G17G23G25G 3G31G 9G 1
   -862954.44649   -667847.22947  20970916.4474   20970916.2354   20970921.8694
   2129210.59146   1649720.39645  25112732.9974   25112734.1504   25112737.8784
    665220.87248    515988.22546  23365650.0594   23365650.3294   23365661.9894
  -5115815.57747  -3964006.75245  24660752.5874   24660754.2524   24660758.8444
   1072138.21848    832314.75046  22556035.9094   22556036.1224   22556040.7724
   -975147.07048   -753643.74746  22196639.5654   22196640.4174   22196645.2224
     91494.79746     84371.92544  24562728.2404   24562723.7694   24562721.0664
  -2191439.81049  -1529317.24747  20334646.5454   20334646.2224   20334650.3384
 97  6 10  3  0 49.0000000  0  8G21G17G23G25G 3G31G 9G 1
   -863621.17049   -668366.75447  20970789.6244   20970789.6414   20970794.9664
   2131263.25446   1651319.86845  25113123.2194   25113125.0374   25113128.8964
    665884.59248    516505.41146  23365776.3184   23365776.9014   23365787.9314
  -5120618.99847  -3967749.67145  24659838.5584   24659840.4744   24659844.2454
   1073337.14848    833248.98146  22556264.0734   22556263.7834   22556268.9414
   -975710.93748   -754083.11846  22196532.3344   22196532.7494   22196537.9574
     91837.11546     84638.67044  24562792.6644   24562789.3564   24562788.9134
  -2193147.88549  -1530648.21547  20334321.5344   20334321.1064   20334325.1824
 97  6 10  3  0 50.0000000  0  8G21G17G23G25G 3G31G 9G 1
   -864287.45049   -668885.93447  20970662.9084   20970662.7594   20970668.1674
   2133316.27946   1652919.62945  25113513.5174   25113516.8504   25113519.6554
    666548.61848    517022.83246  23365902.7364   23365903.4224   23365914.5344
  -5125422.24347  -3971492.45645  24658924.6044   24658926.0374   24658929.9414
   1074536.69248    834183.69246  22556492.3494   22556492.0104   22556497.5134
   -976273.96548   -754521.84846  22196425.3034   22196425.5164   22196430.1684
     92180.28746     84906.08044  24562857.3184   24562854.8594   24562854.5564
  -2194855.17149  -1531978.56547  20333996.6534   20333996.2994   20334000.5374
 97  6 10  3  0 51.0000000  0  8G21G17G23G25G 3G31G 9G 1
   -864953.13249   -669404.64847  20970536.3084   20970536.1494   20970541.6234
   2135369.82246   1654519.79445  25113903.9534   25113906.1594   25113909.3124
    667213.09948    517540.60746  23366029.2554   23366029.7514   23366040.9684
  -5130225.11047  -3975234.94745  24658010.6514   24658012.5024   24658015.5974
   1075736.96048    835118.96046  22556720.7144   22556720.1314   22556726.6374
   -976835.97748   -754959.78346  22196318.4294   22196317.9614   22196323.2484
     92524.27646     85174.12244  24562922.2534   24562921.3944   24562922.2434
  -2196561.52249  -1533308.18947  20333671.9814   20333671.7064   20333675.6994
 97  6 10  3  0 52.0000000  0  8G21G17G23G25G 3G31G 9G 1
   -865618.09949   -669922.80347  20970409.8474   20970409.6524   20970415.0544
   2137424.01346   1656120.46645  25114294.6484   25114295.8184   25114300.9154
    667878.14048    518058.82046  23366155.9774   23366156.2784   23366166.9964
  -5135027.51147  -3978977.07245  24657096.8884   24657098.0414   24657102.9454
   1076938.12148    836054.93146  22556949.3134   22556948.8464   22556954.6404
   -977396.83848   -755396.81846  22196211.7844   22196212.1374   22196216.5254
     92869.42746     85443.07344  24562987.0644   24562987.1224   24562988.3574
  -2198266.81449  -1534636.98847  20333347.5104   20333347.1334   20333351.2804
 97  6 10  3  0 53.0000000  0  8G21G17G23G25G 3G31G 9G 1
   -866283.01049   -670440.91647  20970283.3854   20970283.1854   20970288.4704
   2139478.18246   1657721.12244  25114685.4534   25114686.4344   25114690.1294
    668543.08948    518576.95846  23366282.7294   23366282.9454   23366293.5024
  -5139830.08347  -3982719.32945  24656183.0544   24656184.4224   24656189.1204
   1078139.45248    836991.02746  22557177.8904   22557177.4144   22557183.2774
   -977957.23948   -755833.49346  22196105.1574   22196105.3624   22196110.3524
     93214.81446     85712.20944  24563052.3554   24563051.6784   24563054.8974
  -2199971.70649  -1535965.47547  20333023.1184   20333022.8544   20333026.9214
 97  6 10  3  0 54.0000000  0  8G21G17G23G25G 3G31G 9G 1
   -866947.82949   -670958.95847  20970156.9754   20970156.7104   20970161.7784
   2141532.33146   1659321.76144  25115076.4144   25115076.9024   25115082.1874
    669207.96948    519095.05146  23366409.5264   23366409.7854   23366419.7554
  -5144632.80947  -3986461.70645  24655269.2074   24655270.5344   24655275.5914
   1079341.03448    837927.32546  22557406.5604   22557406.5294   22557411.8094
   -978517.14748   -756269.78346  22195998.5924   22195998.8674   22196003.8644
     93560.67746     85981.71844  24563117.9734   24563116.8424   24563119.4244
  -2201676.16749  -1537293.62647  20332698.7614   20332698.2014   20332702.4864
 97  6 10  3  0 55.0000000  0  8G21G17G23G25G 3G31G 9G 1
   -867612.97549   -671477.25347  20970030.5234   20970030.1584   20970035.4024
   2143586.10546   1660922.10044  25115467.2854   25115466.3254   25115474.2244
    669872.36248    519612.75946  23366536.1714   23366536.0764   23366545.8474
  -5149436.09047  -3990204.52545  24654355.2424   24654356.2884   24654361.3534
   1080542.41648    838863.46946  22557635.2124   22557634.8164   22557640.2594
   -979076.94448   -756705.99146  22195892.0844   22195892.2864   22195896.9824
     93906.50846     86251.20444  24563183.9724   24563182.8524   24563184.3674
  -2203380.59949  -1538621.75647  20332374.3654   20332373.7404   20332378.0684
 97  6 10  3  0 56.0000000  0  8G21G17G23G25G 3G31G 9G 1
   -868278.18149   -671995.59547  20969903.9814   20969903.4054   20969908.6684
   2145639.68646   1662522.29044  25115858.1944   25115859.0364   25115864.8284
    670536.52748    520130.29046  23366662.8794   23366663.0524   23366671.7764
  -5154239.71047  -3993947.60745  24653441.1884   24653442.5454   24653447.2514
   1081743.86548    839799.66046  22557863.8354   22557863.4784   22557869.0724
   -979636.42148   -757141.94946  22195785.6124   22195785.9014   22195790.1654
     94252.63146     86520.91744  24563249.8544   24563248.7004   24563250.4634
  -2205084.76849  -1539949.68147  20332049.9854   20332049.6634   20332053.7014
 97  6 10  3  0 57.0000000  0  8G21G17G23G25G 3G31G 9G 1
   -868943.30249   -672513.87047  20969777.4534   20969776.9764   20969782.2524
   2147693.28746   1664122.49944  25116249.0824   25116250.1004   25116255.6784
    671200.62848    520647.77046  23366789.5394   23366789.5114   23366797.6164
  -5159043.47847  -3997690.79945  24652527.0604   24652528.5634   24652532.6474
   1082945.55648    840736.04146  22558092.5814   22558092.3374   22558097.6964
   -980195.39748   -757577.51746  22195679.2464   22195679.0824   22195684.1704
     94599.13446     86790.92544  24563316.0284   24563314.5234   24563315.7814
  -2206788.49649  -1541277.26347  20331725.7094   20331725.6584   20331729.7314
 97  6 10  3  0 58.0000000  0  8G21G17G23G25G 3G31G 9G 1
   -869608.13449   -673031.92047  20969651.0114   20969650.4494   20969655.6484
   2149747.09446   1665722.86644  25116640.1594   25116639.1564   25116645.9404
    671864.86947    521165.36446  23366916.2304   23366915.9004   23366923.8204
  -5163847.16747  -4001433.93045  24651613.0214   24651614.3684   24651618.8924
   1084147.67548    841672.75946  22558321.4044   22558320.9814   22558325.9414
   -980753.66448   -758012.52946  22195573.0174   22195572.9164   22195577.6324
     94946.24946     87061.41044  24563382.7154   24563380.6934   24563381.5014
  -2208491.57349  -1542604.33347  20331401.5954   20331401.2714   20331405.7164
 97  6 10  3  0 59.0000000  0  8G21G17G23G25G 3G31G 9G 1
   -870272.88549   -673549.90847  20969524.5734   20969523.9304   20969529.2084
   2151800.89846   1667323.23444  25117031.1334   25117029.6704   25117038.1764
    672529.02247    521682.88446  23367042.7494   23367042.1324   23367050.5494
  -5168651.04447  -4005177.21045  24650698.9984   24650699.7454   24650704.6444
   1085350.00648    842609.64246  22558550.3234   22558550.1244   22558555.0424
   -981311.46148   -758447.17946  22195466.8944   22195467.0834   22195472.0744
     95293.81946     87332.24444  24563449.4914   24563445.2114   24563447.4154
  -2210194.23049  -1543931.08147  20331077.5764   20331077.2344   20331081.5674
 97  6 10  3  1  0.0000000  0  8G21G17G23G25G 3G31G 9G 1
   -870937.33649   -674067.65947  20969398.1804   20969397.3334   20969402.4824
   2153854.91846   1668923.76144  25117421.9054   25117420.8254   25117429.0114
    673193.32547    522200.52046  23367169.2074   23367168.1104   23367177.1044
  -5173454.86647  -4008920.44045  24649784.9874   24649785.5114   24649790.2674
   1086552.76748    843546.86146  22558779.3474   22558778.8594   22558783.8234
   -981868.55048   -758881.27546  22195360.9004   22195361.4774   22195365.4704
     95641.95046     87603.51444  24563516.2164   24563511.5214   24563515.0934
  -2211896.23349  -1545257.31647  20330753.7154   20330753.5584   20330757.8544
 97  6 10  3  1  1.0000000  0  8G21G17G23G25G 3G31G 9G 1
   -871601.09849   -674584.87647  20969271.8834   20969271.1904   20969276.3194
   2155909.55046   1670524.77744  25117812.6734   25117810.0434   25117820.1144
    673858.18247    522718.58746  23367295.7034   23367295.0304   23367304.3194
  -5178258.22147  -4012663.30945  24648871.0194   24648871.3244   24648876.4594
   1087756.39048    844484.74946  22559008.5004   22559007.4454   22559012.4154
   -982424.53148   -759314.50846  22195255.1064   22195255.8674   22195259.8964
     95991.05946     87875.55244  24563583.3424   24563578.9204   24563581.4124
  -2213597.18249  -1546582.72947  20330430.0774   20330430.0084   20330434.0434
 97  6 10  3  1  2.0000000  0  8G21G17G23G25G 3G31G 9G 1
   -872264.53149   -675101.84147  20969145.6484   20969144.9674   20969150.1784
   2157964.44346   1672125.98844  25118203.4614   25118200.1594   25118211.0794
    674523.19547    523236.77446  23367422.2804   23367421.6274   23367431.0304
  -5183061.52647  -4016406.14045  24647957.0564   24647958.2314   24647962.4224
   1088960.46748    845422.98846  22559237.7594   22559236.4944   22559241.9424
   -982979.79048   -759747.17746  22195149.4984   22195149.8624   22195154.0774
     96340.86046     88148.12844  24563650.5604   24563646.4644   24563649.2094
  -2215297.46149  -1547907.62347  20330106.5844   20330106.2114   20330110.4374
 97  6 10  3  1  3.0000000  0  8G21G17G23G25G 3G31G 9G 1
   -872926.95549   -675618.01447  20969019.6354   20969018.8394   20969024.0224
   2160020.25846   1673727.92044  25118594.4384   25118591.1044   25118599.5964
    675189.05647    523755.62446  23367549.1264   23367548.3974   23367557.9254
  -5187864.07347  -4020148.38045  24647043.1814   24647044.0044   24647048.9974
   1090165.69148    846362.12546  22559467.1884   22559466.3714   22559471.2524
   -983533.65548   -760178.76446  22195044.2034   22195045.0194   22195048.9784
     96691.93946     88421.70044  24563717.3564   24563713.3774   24563716.9154
  -2216996.38649  -1549231.46047  20329783.3054   20329783.0184   20329787.2614
 97  6 10  3  1  4.0000000  0  8G21G17G23G25G 3G31G 9G 1
   -873589.31249   -676134.13447  20968893.6254   20968892.6304   20968897.8424
   2162076.06546   1675329.84244  25118985.5134   25118984.0204   25118992.4974
    675854.84347    524274.41946  23367675.9024   23367674.8494   23367684.5474
  -5192666.76547  -4023890.73545  24646129.3734   24646129.7564   24646134.9874
   1091371.15348    847301.44646  22559696.6374   22559695.8584   22559700.6104
   -984087.03148   -760609.96546  22194939.0354   22194939.3984   22194943.4014
     97043.45646     88695.61244  24563784.2334   24563782.6774   24563783.4184
  -2218694.88049  -1550554.96047  20329460.1374   20329459.6724   20329464.0744
 97  6 10  3  1  5.0000000  0  8G21G17G23G25G 3G31G 9G 1
   -874251.87549   -676650.41747  20968767.5254   20968766.6294   20968771.7794
   2164131.62346   1676931.57344  25119376.4484   25119374.9424   25119384.4694
    676520.26947    524792.93346  23367802.6694   23367801.4704   23367810.6004
  -5197469.93047  -4027633.45945  24645215.4204   24645215.5584   24645220.9184
   1092576.54748    848240.71346  22559926.1074   22559925.2294   22559930.3934
   -984640.21548   -761041.02446  22194833.8914   22194833.9624   22194838.1024
     97395.00846     88969.55044  24563851.2534                   24563848.5814
  -2220393.22349  -1551878.34547  20329137.0274   20329136.4354   20329140.8934
 97  6 10  3  1  6.0000000  0  8G21G17G23G25G 3G31G 9G 1
   -874914.43649   -677166.69747  20968641.4414   20968640.7114   20968645.6764
   2166187.11946   1678533.25344  25119767.3594   25119766.7624   25119776.0244
    677185.55447    525311.34046  23367929.4624   23367928.6044   23367936.9374
  -5202273.32047  -4031376.35945  24644301.4414   24644301.7624   24644307.0724
   1093782.08448    849180.09246  22560155.5074   22560154.1814   22560159.8244
   -985193.00948   -761471.77246  22194728.8384   22194728.4614   22194733.0114
     97746.92846     89243.77344  24563917.9354                   24563914.8254
  -2222091.21349  -1553201.45347  20328813.9474   20328813.3414   20328817.7454
 97  6 10  3  1  7.0000000  0  8G21G17G23G25G 3G31G 9G 1
   -875577.03749   -677683.01247  20968515.3404   20968514.3744   20968519.8144
   2168242.47846   1680134.82744  25120158.3884   25120157.8344   25120166.1704
    677850.64847    525829.59846  23368056.2974   23368055.1604   23368063.2564
  -5207076.99247  -4035119.47845  24643387.4284   24643387.3694   24643393.2454
   1094987.72848    850119.55246  22560384.8764   22560383.5714   22560389.1994
   -985745.46348   -761902.26046  22194623.8184   22194623.3444   22194627.7744
     98099.09356     89518.18544  24563984.1844                   24563982.2864
  -2223788.90449  -1554524.32747  20328490.8984   20328490.2164   20328494.5944
 97  6 10  3  1  8.0000000  0  8G21G17G23G25G 3G31G 9G 1
   -876239.64849   -678199.33147  20968389.1844   20968388.2734   20968393.6774
   2170297.75546   1681736.33644  25120549.5964   25120549.9934   25120557.1574
    678515.59247    526347.73146  23368182.9634   23368181.6134   23368189.7594
  -5211880.92247  -4038862.79645  24642473.3534   24642473.2074   24642478.9064
   1096193.50348    851059.11846  22560614.3324   22560613.2104   22560618.3104
   -986297.53348   -762332.44646  22194518.8704   22194518.2284   22194522.5504
     98451.66456     89792.91444  24564050.1394                   24564049.1214
  -2225486.25649  -1555846.93947  20328167.9154   20328167.3714   20328171.6454
 97  6 10  3  1  9.0000000  0  8G21G17G23G25G 3G31G 9G 1
   -876902.17949   -678715.59147  20968263.0494   20968262.4314   20968267.4684
   2172353.03446   1683337.85144  25120940.7184   25120940.8844   25120947.1284
    679180.46647    526865.81346  23368309.6014   23368307.8064   23368316.3464
  -5216685.02847  -4042606.25145  24641559.2304   24641559.4084   24641564.8394
   1097399.50348    851998.86046  22560843.7644   22560843.2494   22560847.1824
   -986849.13348   -762762.26246  22194413.9134   22194413.8054   22194417.5464
     98802.99856     90066.68144  24564116.2054                   24564115.9674
  -2227183.18249  -1557169.21947  20327844.9974   20327844.3744   20327848.6234
 97  6 10  3  1 10.0000000  0  8G21G17G23G25G 3G31G 9G 1
   -877564.34949   -679231.56947  20968137.0014   20968136.5524   20968141.2824
   2174408.63046   1684939.61144  25121332.0164   25121332.9844   25121338.9164
    679845.54247    527384.05346  23368436.1604   23368433.8724   23368443.0764
  -5221488.99347  -4046349.59745  24640645.1544   24640645.4334   24640650.2664
   1098606.00948    852938.99046  22561073.2824   22561072.9154   22561077.1464
   -987399.98448   -763191.50046  22194309.1044   22194309.1554   22194312.8474
     99148.80556     90336.13844  24564181.2044                   24564181.6914
  -2228879.39949  -1558490.94747  20327522.2244   20327521.5464   20327525.7584
 97  6 10  3  1 11.0000000  0  7G21G17G23G25G 3G31G 1
   -878226.35249   -679747.41647  20968011.0014   20968010.1304   20968015.3764
   2176464.30546   1686541.43644  25121723.2534   25121725.0164   25121731.3164
    680510.63447    527902.30446  23368562.6904   23368560.7344   23368569.2204
  -5226293.02447  -4050092.99845  24639731.0474   24639731.1324   24639736.0184
   1099812.82448    853879.36146  22561302.8864   22561302.6304   22561307.2464
   -987950.28148   -763620.30346  22194204.3714   22194203.7234   22194208.0774
  -2230575.10249  -1559812.27547  20327199.5214   20327198.8264   20327203.2014
 97  6 10  3  1 12.0000000  0  7G21G17G23G25G 3G31G 1
   -878887.88349   -680262.89347  20967885.1044   20967884.4114   20967889.4954
   2178520.37546   1688143.56744  25122114.6744   25122115.1734   25122122.9834
    681176.06347    528420.82246  23368689.2224   23368687.8814   23368695.7704
  -5231096.83247  -4053836.22245  24638816.9914   24638817.0014   24638822.3924
   1101020.25548    854820.21846  22561532.6004   22561532.5184   22561536.6584
   -988499.69148   -764048.41946  22194099.8524   22194099.0484   22194103.6764
  -2232269.98349  -1561132.96147  20326876.9614   20326876.2704   20326880.6524
 97  6 10  3  1 13.0000000  0  7G21G17G23G25G 3G31G 1
   -879548.55349   -680777.70347  20967759.3374   20967758.6154   20967763.9274
   2180577.25546   1689746.32744  25122506.0984   25122507.1804   25122514.2494
    681842.17447    528939.86546  23368815.9294   23368814.7194   23368822.7174
  -5235900.01547  -4057578.96045  24637903.0094   24637902.9254   24637908.3894
   1102228.67448    855761.84246  22561762.5454   22561762.5904   22561766.7664
   -989047.86348   -764475.56946  22193995.5144   22193995.0794   22193999.1154
  -2233963.65049  -1562452.70247  20326554.6224   20326554.0254   20326558.4884
 97  6 10  3  1 14.0000000  0  7G21G17G23G25G 3G31G 1
   -880208.71849   -681292.11847  20967633.6994   20967633.1664   20967638.2224
   2182634.53546   1691349.40244  25122897.6984   25122898.2784   25122905.8274
    682508.63447    529459.17946  23368942.7704   23368941.7544   23368949.5864
  -5240702.93947  -4061321.49545  24636989.1484   24636988.8084   24636994.0504
   1103437.71648    856703.95246  22561992.6224   22561992.2574   22561997.3264
   -989595.15748   -764902.03046  22193891.4204   22193890.8114   22193894.8384
  -2235656.48749  -1563771.79547  20326232.4314   20326232.0534   20326236.3714
 97  6 10  3  1 15.0000000  0  7G21G17G23G25G 3G31G 1
   -880868.80249   -681806.47047  20967508.1044   20967507.7614   20967512.6584
   2184691.83446   1692952.48944  25123289.1134   25123289.7154   25123297.4324
    683175.00747    529978.43246  23369069.7534   23369068.8484   23369076.1184
  -5245506.00247  -4065064.14345  24636075.1694   24636074.7474   24636079.7494
   1104646.96748    857646.22346  22562222.7294   22562222.4354   22562227.1974
   -990141.95148   -765328.10746  22193787.4234   22193787.4734   22193790.9104
  -2237348.90149  -1565090.55947  20325910.3074   20325909.9074   20325914.3084
 97  6 10  3  1 16.0000000  0  7G21G17G23G25G 3G31G 1
   -881528.86849   -682320.80747  20967382.5464   20967382.2164   20967386.9274
   2186749.05346   1694555.51644  25123680.4114   25123680.4994   25123688.7044
    683841.22947    530497.56946  23369196.7224   23369195.8704   23369202.7694
  -5250309.32247  -4068806.99245  24635161.0404   24635160.6114   24635165.3144
   1105856.36648    858588.61446  22562452.8214   22562452.2374   22562457.3944
   -990688.35348   -765753.88046  22193683.5164   22193683.1274   22193687.2504
  -2239040.99649  -1566409.07447  20325588.2644   20325587.8034   20325592.2064
 97  6 10  3  1 17.0000000  0  7G21G17G23G25G 3G31G 1
   -882189.17749   -682835.33247  20967256.8714   20967256.3944   20967261.2004
   2188805.92746   1696158.27244  25124071.7654   25124071.4224   25124079.9314
    684507.04847    531016.38746  23369323.6104   23369322.8894   23369329.0384
  -5255113.14447  -4072550.22745  24634246.9314   24634246.5134   24634251.2824
   1107065.62048    859530.89246  22562682.9384   22562682.7164   22562687.4764
   -991234.61548   -766179.53546  22193579.7064   22193579.2494   22193583.2154
  -2240733.00949  -1567727.52747  20325266.2334   20325265.9124   20325270.4154
 97  6 10  3  1 18.0000000  0  7G21G17G23G25G 3G31G 1
   -882849.51649   -683349.88347  20967131.1774   20967130.5844   20967135.5004
   2190862.68946   1697760.94544  25124463.0734   25124464.8184   25124470.1694
    685172.67347    531535.05346  23369450.3644   23369449.6404   23369455.5954
  -5259917.22947  -4076293.66845  24633332.7074   24633332.5394   24633337.2304
   1108274.98548    860473.25446  22562913.0264   22562912.1764   22562917.4694
   -991780.52748   -766604.92146  22193475.9584   22193475.1564   22193479.7774
  -2242424.71349  -1569045.73747  20324944.2704   20324943.9184   20324948.5014
 97  6 10  3  1 19.0000000  0  7G21G17G23G25G 3G31G 1
   -883509.68249   -683864.30147  20967005.5764   20967005.1964   20967010.0614
   2192919.57646   1699363.70944  25124854.3554   25124856.1034   25124862.0014
    685838.29547    532053.72046  23369577.0864   23369576.0414   23369581.7954
  -5264721.38847  -4080037.16245  24632418.4654   24632418.1404   24632423.2984
   1109484.66048    861415.85646  22563143.1414   22563143.2964   22563147.8034
   -992325.86848   -767029.86546  22193372.3034   22193371.1114   22193375.6134
  -2244115.90649  -1570363.54947  20324622.4054   20324622.1294   20324626.6314
 97  6 10  3  1 20.0000000  0  7G21G17G23G25G 3G31G 1
   -884169.59349   -684378.51747  20966880.0614   20966879.6014   20966884.3604
   2194976.62946   1700966.60644  25125245.6994   25125248.2644   25125253.9874
    686504.02147    532572.46446  23369703.7344   23369702.9404   23369708.0174
  -5269525.54547  -4083780.65845  24631504.2624   24631503.5804   24631509.1924
   1110694.70848    862358.75246  22563373.3594   22563373.9394   22563378.6224
   -992870.57148   -767454.31246  22193268.7114   22193267.5964   22193272.2584
  -2245806.51149  -1571680.90547  20324300.6644   20324300.3574   20324304.8254
 97  6 10  3  1 21.0000000  0  7G21G17G23G25G 3G31G 1
   -884829.43049   -684892.67647  20966754.5744   20966754.1104   20966758.8444
   2197033.68046   1702569.50244  25125637.1684   25125639.8614   25125645.8454
    687169.65647    533091.13646  23369830.3244   23369829.5604   23369834.9144
  -5274329.87347  -4087524.28445  24630590.0514   24630589.0644   24630594.9034
   1111904.96148    863301.80346  22563603.6414   22563603.7934   22563608.4214
   -993414.81348   -767878.40146  22193165.2174   22193163.6664   22193168.5464
  -2247496.70549  -1572997.93947  20323979.0154   20323978.7114   20323983.2404
 97  6 10  3  1 22.0000000  0  7G21G17G23G25G 3G31G 1
   -885488.73849   -685406.42147  20966629.1874   20966628.6784   20966633.3404
   2199091.16946   1704172.73445  25126028.7804   25126030.0104   25126037.2244
    687835.64947    533610.09446  23369956.9494   23369956.6534   23369961.3544
  -5279133.92047  -4091267.69245  24629675.9054   24629674.5514   24629681.0854
   1113115.89048    864245.37946  22563834.0264   22563834.9444   22563839.1994
   -993958.15048   -768301.77646  22193061.8134   22193060.9584   22193064.7194
  -2249186.05849  -1574314.31847  20323657.5414   20323657.2744   20323661.9174
 97  6 10  3  1 23.0000000  0  7G21G17G23G25G 3G31G 1
   -886147.70349   -685919.89847  20966503.8224   20966503.1814   20966507.9224
   2201148.93046   1705776.18145  25126420.5624   25126421.4184   25126429.2994
    688501.84347    534129.20446  23370083.6424   23370083.5374   23370088.0974
  -5283937.88047  -4095011.03045  24628761.7714   24628760.3774   24628766.6344
   1114327.29248    865189.32646  22564064.4714   22564064.7534   22564069.3314
   -994500.75148   -768724.57646  22192958.5694   22192957.6604   22192961.2754
  -2250874.74549  -1575630.17647  20323336.1604   20323335.8764   20323340.3584
 97  6 10  3  1 24.0000000  0  7G21G17G23G25G 3G31G 1
   -886805.93349   -686432.80647  20966378.6064   20966377.8674   20966382.7424
   2203207.33046   1707380.12245  25126812.4174   25126812.3914   25126821.3704
    689168.60347    534648.75546  23370210.3924   23370210.6574   23370215.2814
  -5288741.33347  -4098753.97145  24627847.7364   24627845.9794   24627852.1444
   1115539.55848    866133.94846  22564295.1504   22564295.4564   22564299.5314
   -995042.24348   -769146.51846  22192855.5414   22192854.6124   22192858.9244
  -2252562.37549  -1576945.21147  20323014.9894   20323014.6874   20323019.4404
 97  6 10  3  1 25.0000000  0  7G21G17G23G25G 3G31G 1
   -887463.75149   -686945.39447  20966253.4784   20966252.7354   20966257.5094
   2205266.05246   1708984.31945  25127204.2674   25127203.7724   25127212.8884
    689835.59147    535168.48846  23370337.2944   23370337.4804   23370342.2794
  -5293544.61947  -4102496.79045  24626933.7104   24626932.5004   24626937.9274
   1116752.39048    867079.01346  22564525.9364   22564526.0294   22564530.9054
   -995582.94648   -769567.85246  22192752.5704   22192751.5814   22192755.7314
  -2254249.29149  -1578259.69247  20322693.9704   20322693.9114   20322698.3954
 97  6 10  3  1 26.0000000  0  7G21G17G23G25G 3G31G 1
   -888121.38249   -687457.83647  20966128.4094   20966127.6024   20966132.0834
   2207324.87546   1710588.59545  25127596.1644   25127595.1864   25127604.5674
    690502.59147    535688.22846  23370464.2454   23370464.1454   23370469.6174
  -5298347.99747  -4106239.68245  24626019.6514   24626019.1314   24626024.0644
   1117965.53048    868024.31346  22564756.7864   22564757.1344   22564761.7144
   -996123.10148   -769988.75946  22192649.6984   22192648.5634   22192653.1674
  -2255935.70349  -1579573.78247  20322373.0414   20322373.0434   20322377.5004
 97  6 10  3  1 27.0000000  0  7G21G17G23G25G 3G31G 1
   -888779.27249   -687970.47647  20966003.2464   20966002.4924   20966007.0974
   2209383.35046   1712192.60045  25127987.9744   25127986.7914   25127996.3254
    691169.16247    536207.63646  23370591.1964   23370591.2844   23370596.3334
  -5303151.87047  -4109982.95945  24625105.5694   24625105.0254   24625109.9554
   1119178.56148    868969.53246  22564987.5784   22564988.2974   22564991.8544
   -996663.13648   -770409.56746  22192546.8794   22192545.9554   22192550.3054
  -2257622.04349  -1580887.81447  20322052.1504   20322052.0954   20322056.5274
 97  6 10  3  1 28.0000000  0  7G21G17G23G25G 3G31G 1
   -889436.85549   -688482.87847  20965878.0894   20965877.3774   20965882.0024
   2211442.00146   1713796.73645  25128379.5014   25128378.6034   25128387.7484
    691835.85647    536727.13946  23370718.1984   23370718.3174   23370723.2544
  -5307955.68847  -4113726.19145  24624191.5064   24624191.0534   24624195.2014
   1120392.03748    869915.09546  22565218.4974   22565219.1554   22565223.1644
   -997202.51448   -770829.85746  22192444.2124   22192443.0434   22192447.1554
  -2259307.79149  -1582201.38547  20321731.3894   20321731.3574   20321735.7274
 97  6 10  3  1 29.0000000  0  7G21G17G23G25G 3G31G 1
   -890094.56449   -688995.37847  20965752.9454   20965752.3404   20965756.6764
   2213500.47046   1715400.73445  25128770.9454   25128770.3934   25128779.6284
    692502.25047    537246.40646  23370845.1964   23370845.6434   23370850.2334
  -5312759.88847  -4117469.72245  24623277.3444   24623276.6784   24623281.2664
   1121605.51348    870860.66246  22565449.4354   22565449.9184   22565454.0914
   -997741.63348   -771249.95246  22192341.6654   22192340.4234   22192344.4434
  -2260993.33049  -1583514.78847  20321410.6864   20321410.5544   20321414.9704
 97  6 10  3  1 30.0000000  0  7G21G17G23G25G 3G31G 1
   -890752.15449   -689507.78847  20965627.8604   20965627.0944   20965631.4144
   2215558.94646   1717004.74345  25129162.4464   25129162.5654   25129170.8854
    693168.59747    537765.63646  23370972.0234   23370972.6354   23370977.1864
  -5317564.22347  -4121213.35845  24622363.1054   24622362.3444   24622367.3464
   1122819.24748    871806.42046  22565680.4574   22565680.2194   22565685.3114
   -998280.26948   -771669.66746  22192239.2614   22192237.8624   22192242.1684
  -2262678.44349  -1584827.86247  20321090.0784   20321090.0654   20321094.5394
 97  6 10  3  1 31.0000000  0  7G21G17G23G25G 3G31G 1
   -891409.54349   -690020.03847  20965502.8294   20965502.2254   20965506.3274
   2217617.52246   1718608.82445  25129553.9944   25129554.4594   25129562.8164
    693834.94247    538284.86246  23371098.9174   23371099.5874   23371103.9964
  -5322368.60547  -4124957.02745  24621448.8244   24621448.0224   24621453.3744
   1124033.29348    872752.43246  22565911.4474   22565911.1804   22565915.9294
   -998818.33448   -772088.94646  22192137.0204   22192135.9114   22192139.9804
  -2264363.05749  -1586140.54847  20320769.5624   20320769.3624   20320773.6904
 97  6 10  3  1 32.0000000  0  7G21G17G23G25G 3G31G 1
   -892066.68649   -690532.09947  20965377.8314   20965377.0064   20965381.2344
   2219676.21946   1720212.99945  25129945.6144   25129945.2004   25129955.5674
    694501.34847    538804.13646  23371225.9114   23371225.9534   23371230.7954
  -5327173.02047  -4128700.72145  24620534.4934   24620533.5284   24620538.8994
   1125247.73248    873698.75046  22566142.5604   22566142.5354   22566147.6534
   -999355.78748   -772507.74146  22192034.8234   22192033.3934   22192037.9984
  -2266047.11649  -1587452.80347  20320449.1394   20320448.9014   20320453.3054
 97  6 10  3  1 33.0000000  0  7G21G17G23G25G 3G31G 1
   -892723.27849   -691043.72747  20965252.9444   20965251.9264   20965256.3244
   2221735.38246   1721817.53545  25130337.3014   25130338.3604   25130347.1954
    695168.12447    539323.69846  23371352.9974   23371352.4484   23371357.7474
  -5331977.15747  -4132444.19845  24619620.2664   24619619.5104   24619625.0534
   1126462.81148    874645.56746  22566373.8014   22566374.1514   22566379.0344
   -999892.32848   -772925.82446  22191932.7854   22191931.3504   22191935.5164
  -2267730.31949  -1588764.38647  20320128.8724   20320128.3944   20320132.8774
 97  6 10  3  1 34.0000000  0  7G21G17G23G25G 3G31G 1
   -893379.26649   -691554.88747  20965128.1394   20965127.3194   20965131.5114
   2223795.05546   1723422.46845  25130729.1404   25130729.2284   25130737.0344
    695835.31347    539843.58746  23371480.1454   23371479.3924   23371484.3784
  -5336780.95947  -4136187.41845  24618706.0594   24618705.4914   24618711.0674
   1127678.67348    875592.99346  22566605.2334   22566605.9274   22566609.5054
  -1000427.89348   -773343.15046  22191830.9274   22191829.4664   22191833.7444
  -2269412.60949  -1590075.26347  20319808.7524   20319808.3464   20319812.8394
 97  6 10  3  1 35.0000000  0  7G21G17G23G25G 3G31G 1
   -894034.73349   -692065.64147  20965003.4184   20965002.6464   20965006.9794
   2225855.16346   1725027.74245  25131121.0994   25131120.5394   25131129.5634
    696502.86847    540363.76046  23371607.3824   23371606.8574   23371611.3674
  -5341584.50347  -4139930.44145  24617791.9444   24617790.6454   24617797.0144
   1128895.15848    876540.90146  22566836.7974   22566837.3624   22566841.4084
  -1000962.58248   -773759.78946  22191729.1944   22191727.7814   22191732.7734
  -2271094.06849  -1591385.48847  20319488.7894   20319488.3484   20319492.9174
 97  6 10  3  1 36.0000000  0  7G21G17G23G25G 3G31G 1
   -894689.56249   -692575.89747  20964878.8074   20964877.8694   20964882.1694
   2227915.80046   1726633.43245  25131513.1424   25131511.9884   25131521.2604
    697170.89147    540884.29746  23371734.7684   23371734.2004   23371738.1054
  -5346387.65147  -4143673.15145  24616877.8814   24616876.4984   24616883.1054
   1130112.41748    877489.41446  22567068.4804   22567068.0784   22567072.9274
  -1001496.22848   -774175.62046  22191627.5944   22191626.1404   22191630.8904
  -2272774.56249  -1592694.96647  20319168.9604   20319168.5764   20319173.1014
 97  6 10  3  1 37.0000000  0  7G21G17G23G25G 3G31G 1
   -895344.61949   -693086.33547  20964754.1674   20964753.2164   20964757.5214
   2229976.12046   1728238.87245  25131905.0454   25131903.9984   25131914.1614
    697838.51747    541404.52446  23371862.0934   23371861.5494   23371865.4524
  -5351191.29347  -4147416.24745  24615963.7444   24615962.3954   24615968.9234
   1131329.58348    878437.85546  22567300.1914   22567299.9294   22567304.8854
  -1002029.72748   -774591.33846  22191525.9944   22191524.7114   22191528.3264
  -2274454.98849  -1594004.39147  20318849.1564   20318848.9814   20318853.4344
 97  6 10  3  1 38.0000000  0  7G21G17G23G25G 3G31G 1
   -895999.76249   -693596.83647  20964629.5114   20964628.7334   20964632.9134
   2232036.28146   1729844.18345  25132296.9514   25132297.0624   25132305.6424
    698505.91747    541924.57646  23371989.3734   23371988.2644   23371992.0124
  -5355995.25447  -4151159.59245  24615049.6314   24615048.5634   24615054.7994
   1132546.77348    879386.31446  22567531.8244   22567531.6584   22567536.3724
  -1002562.92748   -775006.82246  22191424.4834   22191422.9074   22191427.2194
  -2276135.18349  -1595313.63547  20318529.4444   20318529.0614   20318533.4934
 97  6 10  3  1 39.0000000  0  7G21G17G23G25G 3G31G 1
   -896655.02849   -694107.43447  20964504.8394   20964504.0784   20964508.1694
   2234096.18846   1731449.29845  25132688.8514   25132688.5224   25132696.5194
    699173.02647    542444.40646  23372116.5804   23372114.9744   23372118.7194
  -5360799.59047  -4154903.23145  24614135.3054   24614134.4934   24614140.6144
   1133763.96648    880334.77846  22567763.5194   22567763.3664   22567768.2934
  -1003095.87848   -775422.10846  22191322.9834   22191321.3814   22191326.3344
  -2277815.18449  -1596622.72547  20318209.7804   20318209.5084   20318213.7054
 97  6 10  3  1 40.0000000  0  7G21G17G23G25G 3G31G 1
   -897310.39849   -694618.11047  20964380.1454   20964379.2594   20964383.1994
   2236155.90846   1733054.26945  25133080.6104   25133079.3894   25133088.6474
    699839.87447    542964.02746  23372243.6224   23372241.7414   23372245.8464
  -5365604.28547  -4158647.14745  24613220.9484   24613220.3024   24613226.1074
   1134981.16848    881283.25146  22567995.2324   22567995.1484   22567999.7764
  -1003628.53948   -775837.16746  22191221.5044   22191220.7244   22191224.3444
  -2279494.99949  -1597931.67147  20317890.1644   20317889.7394   20317894.3254
 97  6 10  3  1 41.0000000  0  7G21G17G23G25G 3G31G 1
   -897965.44849   -695128.53847  20964255.4704   20964254.4494   20964258.5354
   2238215.84546   1734659.41145  25133472.3524   25133471.8234   25133480.3134
    700506.89247    543483.78146  23372370.6714   23372368.9974   23372372.9964
  -5370408.90347  -4162391.00145  24612306.5964   24612306.0874   24612311.9934
   1136198.81048    882232.06146  22568227.0524   22568226.8524   22568231.6124
  -1004160.48948   -776251.67346  22191120.1474   22191119.1934   22191122.9974
  -2281174.17749  -1599240.12147  20317570.6784   20317570.2304   20317574.6264
 97  6 10  3  1 42.0000000  0  7G21G17G23G25G 3G31G 1
   -898620.33249   -695638.83747  20964130.8014   20964129.8434   20964134.0194
   2240275.82846   1736264.58745  25133863.9584   25133864.0164   25133873.3314
    701173.90147    544003.52846  23372497.6414   23372495.9434   23372499.2334
  -5375213.63847  -4166134.95145  24611392.2254   24611391.5264   24611397.6754
   1137416.72748    883181.08446  22568458.8164   22568457.5514   22568463.1444
  -1004691.87948   -776665.73746  22191018.8904   22191017.9234   22191022.4604
  -2282852.87649  -1600548.19747  20317251.2614   20317250.9284   20317255.2484
 97  6 10  3  1 43.0000000  0  7G21G17G23G25G 3G31G 1
   -899275.02049   -696148.98547  20964006.1804   20964005.4264   20964009.4444
   2242335.96346   1737869.88345  25134255.7754   25134255.9694   25134267.7464
    701840.94847    544523.30046  23372624.5734   23372622.6024   23372626.3474
  -5380018.39147  -4169878.90945  24610477.8504   24610477.3674   24610483.1064
   1138634.96648    884130.36146  22568690.7004   22568689.6574   22568695.0604
  -1005222.66148   -777079.33246  22190917.7294   22190916.7974   22190921.7914
  -2284531.07149  -1601855.88147  20316931.9334   20316931.5424   20316935.8144
 97  6 10  3  1 44.0000000  0  7G21G17G23G25G 3G31G 1
   -899929.26949   -696658.79147  20963881.6794   20963880.7354   20963885.0174
   2244396.39846   1739475.41644  25134647.6844   25134648.9024   25134659.2114
    702508.28047    545043.29846  23372751.5424   23372749.4944   23372753.7474
  -5384822.96347  -4173622.72745  24609563.5954   24609563.0034   24609569.2664
   1139853.74248    885080.05946  22568922.6764   22568921.6044   22568926.6424
  -1005752.60848   -777492.28346  22190816.7454   22190816.1254   22190820.8834
  -2286208.51849  -1603162.98247  20316612.7514   20316612.1494   20316616.8014
 97  6 10  3  1 45.0000000  0  7G21G17G23G25G 3G31G 1
   -900582.84449   -697168.06947  20963757.3174   20963756.4184   20963760.4964
   2246457.45946   1741081.43445  25135039.8114   25135042.3734   25135051.6114
    703176.13547    545563.70246  23372878.6234   23372876.7534   23372880.9964
  -5389627.11747  -4177366.22045  24608649.2774   24608648.4314   24608655.2194
   1141073.31448    886030.37146  22569154.8654   22569153.8234   22569158.5054
  -1006281.48648   -777904.39946  22190715.9984   22190715.6044   22190720.3264
  -2287884.97249  -1604469.30947  20316293.7644   20316293.1574   20316297.6404
 97  6 10  3  1 46.0000000  0  7G21G17G23G25G 3G31G 1
   -901235.78849   -697676.85847  20963633.0524   20963632.2544   20963636.2014
   2248519.05546   1742687.87044  25135432.0934   25135435.1324   25135443.7664
    703844.43647    546084.44946  23373005.8004   23373003.8764   23373007.4124
  -5394430.86347  -4181109.39345  24607735.1284   24607734.1004   24607740.6754
   1142293.62848    886981.26346  22569387.1064   22569386.3974   22569390.9684
  -1006809.32148   -778315.69646  22190615.4784   22190615.0164   22190619.4064
  -2289560.49649  -1605774.91147  20315974.9804   20315974.1874   20315978.8804
 97  6 10  3  1 47.0000000  0  7G21G17G23G25G 3G31G 1
   -901888.18249   -698185.21947  20963508.9194   20963508.3244   20963512.1044
   2250581.12046   1744294.66944  25135824.4664   25135826.5134   25135833.8614
    704513.12047    546605.49746  23373133.1214   23373131.1244   23373134.7334
  -5399234.30947  -4184852.33545  24606820.9684   24606820.7064   24606826.8074
   1143514.60348    887932.67746  22569619.3594   22569618.5764   22569623.0904
  -1007336.22348   -778726.26846  22190515.1494   22190514.5434   22190519.2204
  -2291235.14749  -1607079.83347  20315656.3104   20315655.4924   20315660.1674
 97  6 10  3  1 48.0000000  0  7G21G17G23G25G 3G31G 1
   -902540.79349   -698693.74947  20963384.7304   20963384.1794   20963387.7234
   2252642.85646   1745901.21344  25136216.9034   25136218.1024   25136226.4524
    705181.41047    547126.23446  23373260.3674   23373258.5314   23373261.9544
  -5404038.24847  -4188595.66445  24605906.7084   24605906.5774   24605912.9144
   1144735.46548    888883.99146  22569851.6204   22569850.9044   22569855.3034
  -1007862.94248   -779136.70846  22190414.9104   22190414.1884   22190419.4494
  -2292909.70249  -1608384.68247  20315337.6204   20315337.0954   20315341.4314
 97  6 10  3  1 49.0000000  0  7G21G17G23G25G 3G31G 1
   -903193.64949   -699202.46847  20963260.4814   20963259.8124   20963263.4834
   2254704.22646   1747507.46744  25136609.2764   25136610.8104   25136618.1844
    705849.25747    547646.63146  23373387.4504   23373385.8434   23373388.9724
  -5408842.68447  -4192339.37545  24604992.3584   24604992.6624   24604999.2094
   1145956.19148    889835.20846  22570083.9254   22570082.8664   22570087.6454
  -1008389.51548   -779547.02446  22190314.7964   22190313.7174   22190319.8374
  -2294584.21149  -1609689.49347  20315018.9204   20315018.2974   20315022.8304
 97  6 10  3  1 50.0000000  0  7G21G17G23G25G 3G31G 1
   -903846.50849   -699711.19147  20963136.2334   20963135.6244   20963139.3414
   2256765.52546   1749113.66944  25137001.6244   25137003.7814   25137008.9554
    706516.92447    548166.88946  23373514.5364   23373513.3044   23373515.7254
  -5413647.37647  -4196083.29045  24604077.9204   24604078.5054   24604085.2454
   1147177.03748    890786.51446  22570316.2224   22570315.1074   22570319.9924
  -1008915.68348   -779957.02446  22190214.7734   22190213.9524   22190219.4274
  -2296258.39049  -1610994.04847  20314700.3064   20314699.7094   20314704.2374
 97  6 10  3  1 51.0000000  0  7G21G17G23G25G 3G31G 1
   -904499.43649   -700219.96447  20963011.9644   20963011.2504   20963015.1854
   2258826.65346   1750719.73844  25137393.9524   25137393.7694   25137401.6114
    707184.34047    548686.95746  23373641.6644   23373640.5714   23373642.7904
  -5418452.39947  -4199827.46145  24603163.3974   24603164.3004   24603170.0504
   1148397.92548    891737.85546  22570548.4494   22570547.1624   22570552.5594
  -1009441.52548   -780366.77146  22190114.7724   22190114.6194   22190118.8414
  -2297932.33549  -1612298.42147  20314381.7254   20314381.2444   20314385.8584
 97  6 10  3  1 52.0000000  0  7G21G17G23G25G 3G31G 1
   -905152.06549   -700728.50847  20962887.7934   20962887.1894   20962891.0104
   2260887.97646   1752325.95544  25137786.3964   25137785.4384   25137793.1024
    707851.87247    549207.11546  23373768.7784   23373767.6434   23373769.5074
  -5423257.36147  -4203571.58645  24602248.8384   24602249.7794   24602255.3484
   1149619.25348    892689.53646  22570780.7824   22570779.7124   22570784.8204
  -1009966.62948   -780775.94246  22190014.8384   22190014.1554   22190018.3724
  -2299605.65749  -1613602.31147  20314063.2794   20314062.8734   20314067.4544
 97  6 10  3  1 53.0000000  0  7G21G17G23G25G 3G31G 1
   -905804.36849   -701236.79647  20962763.6504   20962763.0694   20962766.6714
   2262949.54246   1753932.36444  25138178.6414   25138178.0104   25138186.0134
    708519.57347    549727.40746  23373895.9084   23373894.8794   23373896.8374
  -5428062.25847  -4207315.65845  24601334.3064   24601335.1754   24601340.5044
   1150841.03048    893641.57146  22571013.1564   22571012.3734   22571016.8374
  -1010490.99448   -781184.53846  22189915.0494   22189914.6434   22189919.2324
  -2301278.31849  -1614905.68047  20313744.9234   20313744.4664   20313748.9054
 97  6 10  3  1 54.0000000  0  7G21G17G23G25G 3G31G 1
   -906456.65649   -701745.07147  20962639.5344   20962639.0354   20962642.5354
   2265011.06446   1755538.74044  25138570.6574   25138571.8734   25138577.9234
    709187.13047    550247.58146  23374022.9424   23374021.6894   23374023.7664
  -5432867.39047  -4211059.91445  24600419.7934   24600420.4864   24600426.1514
   1152062.94948    894593.71946  22571245.5484   22571244.6784   22571249.7744
  -1011014.94648   -781592.82046  22189815.3864   22189814.8214   22189819.1364
  -2302950.64549  -1616208.79347  20313426.6894   20313426.3394   20313430.7924
 97  6 10  3  1 55.0000000  0  7G21G17G23G25G 3G31G 1
   -907108.41849   -702252.93647  20962515.5084   20962514.9934   20962518.5524
   2267073.03346   1757145.46844  25138963.1484   25138965.6864   25138970.6454
    709855.03747    550768.03646  23374149.9934   23374149.1364   23374150.7164
  -5437672.19947  -4214803.91545  24599505.2854   24599505.7414   24599511.8764
   1153285.57848    895546.42046  22571478.0714   22571476.9614   22571483.3534
  -1011537.93448   -782000.34146  22189715.8634   22189715.1654   22189719.7454
  -2304622.08849  -1617511.21647  20313108.5944   20313108.3414   20313112.7914
 97  6 10  3  1 56.0000000  0  7G21G17G23G25G 3G31G 1
   -907759.84349   -702760.54347  20962391.5674   20962390.9624   20962394.7214
   2269135.25746   1758752.38944  25139355.5684   25139358.2434   25139363.9584
    710523.13647    551288.63146  23374277.0544   23374275.1574   23374277.6294
  -5442476.94547  -4218547.86945  24598590.9104   24598591.1064   24598597.5744
   1154508.67948    896499.47946  22571710.7194   22571710.0374   22571716.0354
  -1012060.17648   -782407.28446  22189616.4684   22189615.9064   22189619.7234
  -2306292.86049  -1618813.11847  20312790.6644   20312790.3124   20312794.9644
 97  6 10  3  1 57.0000000  0  7G21G17G23G25G 3G31G 1
   -908410.17549   -703267.29747  20962267.8544   20962267.3014   20962270.9684
   2271198.54246   1760360.14144  25139748.1374   25139750.5424   25139755.7394
    711192.15447    551809.94546  23374404.2604   23374402.3724   23374405.0934
  -5447280.81947  -4222291.14945  24597676.7404   24597677.5294   24597683.1824
   1155733.01248    897453.50546  22571943.5834   22571943.8214   22571948.6264
  -1012580.91648   -782813.05346  22189517.4024   22189516.5264   22189521.1864
  -2307962.19649  -1620113.89647  20312473.0214   20312472.6614   20312477.0134
 97  6 10  3  1 58.0000000  0  7G21G17G23G25G 3G31G 1
   -909060.47249   -703774.02347  20962144.1864   20962143.4854   20962146.9984
   2273261.76746   1761967.84444  25140140.7404   25140142.9084   25140148.6494
    711861.03747    552331.15146  23374531.3434   23374529.4374   23374532.3804
  -5452084.90047  -4226034.59045  24596762.5464   24596763.4524   24596768.6674
   1156957.54848    898407.68946  22572176.5394   22572177.1554   22572181.5574
  -1013101.19248   -783218.46246  22189418.3764   22189417.3444   22189421.9794
  -2309631.16049  -1621414.38947  20312155.4514   20312155.2364   20312159.3814
 97  6 10  3  1 59.0000000  0  7G21G17G23G25G 3G31G 1
   -909710.68049   -704280.67947  20962020.5294   20962019.7794   20962023.1394
   2275324.97746   1763575.54144  25140533.4424   25140534.5774   25140541.1794
    712529.85447    552852.30346  23374658.3734   23374656.8954   23374660.0704
  -5456889.16047  -4229778.17045  24595848.3974   24595850.0494   24595854.6014
   1158182.30548    899362.04446  22572409.5564   22572409.9784   22572414.4504
  -1013620.98948   -783623.50646  22189319.4004   22189319.3054   22189323.4494
  -2311299.71149  -1622714.55847  20311837.9514   20311837.4984   20311842.1614
 97  6 10  3  2  0.0000000  0  7G21G17G23G25G 3G31G 1
   -910360.97349   -704787.40147  20961896.8024   20961895.8994   20961899.4284
   2277388.06946   1765183.14444  25140925.9644   25140928.0844   25140933.5914
    713198.41447    553373.25446  23374785.3244   23374783.8134   23374787.5464
  -5461693.75647  -4233522.00745  24594934.0994   24594935.6414   24594939.8654
   1159407.10248    900316.42446  22572642.5804   22572642.1784   22572647.4734
  -1014140.45648   -784028.28146  22189220.5274   22189219.9674   22189224.9834
  -2312968.01349  -1624014.53347  20311520.5394   20311520.0274   20311524.5284
 97  6 10  3  2  1.0000000  0  7G21G17G23G25G 3G31G 1
   -911011.30149   -705294.15047  20961773.0594   20961772.1864   20961775.6924
   2279451.06046   1766790.66844  25141318.5154   25141320.5734   25141325.6434
    713866.75747    553894.03646  23374912.3474   23374911.0334   23374915.1324
  -5466498.61247  -4237266.05045  24594019.8224   24594021.2364   24594025.2224
   1160632.02648    901270.91246  22572875.6324   22572875.0824   22572880.3344
  -1014659.52348   -784432.74446  22189121.6954   22189121.1444   22189125.9534
  -2314636.02249  -1625314.28047  20311203.1454   20311202.5664   20311207.0554
 97  6 10  3  2  2.0000000  0  7G21G17G23G25G 3G31G 1
   -911661.72249   -705800.97347  20961649.2974   20961648.5234   20961651.9454
   2281513.87746   1768398.05944  25141711.2384   25141712.3824   25141719.1114
    714534.84047    554414.61946  23375039.4854   23375038.5714   23375042.7204
  -5471303.79247  -4241010.34245  24593105.4674   24593107.3134   24593110.8444
   1161856.99648    902225.43346  22573108.6764   22573108.3004   22573113.3444
  -1015178.29248   -784836.98546  22189022.9414   22189022.2374   22189027.3334
  -2316303.79349  -1626613.84047  20310885.8014   20310885.2134   20310889.7004
 97  6 10  3  2  3.0000000  0  7G21G17G23G25G 3G31G 1
   -912311.97949   -706307.66747  20961525.5774   20961524.7224   20961528.2044
   2283576.81846   1770005.54844  25142103.9264   25142105.1624   25142112.9894
    715202.92647    554935.20346  23375166.6204   23375166.0194   23375169.9584
  -5476109.06247  -4244754.70845  24592191.1794   24592193.0474   24592196.3664
   1163082.27548    903180.19846  22573341.8504   22573341.6424   22573346.3894
  -1015696.48848   -785240.77446  22188924.3004   22188923.5264   22188928.7374
  -2317971.06349  -1627913.01147  20310568.5294   20310567.8794   20310572.5844
 97  6 10  3  2  4.0000000  0  7G21G17G23G25G 3G31G 1
   -912962.13149   -706814.27847  20961401.8574   20961401.2334   20961404.6874
   2285639.78746   1771613.05944  25142496.5584   25142496.7674   25142506.1774
    715870.93047    555455.72646  23375293.7054   23375293.4524   23375296.9194
  -5480914.42947  -4248499.14945  24591276.8794   24591278.7484   24591282.0994
   1164307.80748    904135.15346  22573575.1194   22573575.8374   22573580.1484
  -1016214.16048   -785644.15746  22188825.6684   22188824.7384   22188829.5294
  -2319637.90449  -1629211.84847  20310251.3494   20310250.6714   20310255.1864
 97  6 10  3  2  5.0000000  0  7G21G17G23G25G 3G31G 1
   -913612.11349   -707320.75847  20961278.1564   20961277.3924   20961281.1824
   2287702.87746   1773220.66544  25142889.2554   25142889.6934   25142898.6364
    716538.96647    555976.27246  23375420.7744   23375420.8844   23375423.2674
  -5485719.86847  -4252243.64445  24590362.5394   24590363.5314   24590368.1604
   1165533.66048    905090.36446  22573808.4294   22573808.3394   22573812.8434
  -1016731.27748   -786047.10846  22188727.1454   22188726.8454   22188731.3514
  -2321304.23349  -1630510.28947  20309934.2364   20309933.6154   20309938.1714
 97  6 10  3  2  6.0000000  0  7G21G17G23G25G 3G31G 1
   -914261.48149   -707826.76047  20961154.5654   20961153.7684   20961157.3024
   2289766.48546   1774828.67344  25143282.0804   25143281.7154   25143291.3074
    717207.44847    556497.16746  23375547.9594   23375548.3544   23375550.8654
  -5490524.92447  -4255987.83845  24589448.2314   24589448.5904   24589454.2424
   1166760.26348    906046.15946  22574041.8494   22574041.7674   22574046.4764
  -1017247.36448   -786449.24646  22188628.7794   22188627.9224   22188633.4554
  -2322969.62249  -1631807.99547  20309617.2924   20309616.9694   20309621.2394
 97  6 10  3  2  7.0000000  0  7G21G17G23G25G 3G31G 1
   -914910.19949   -708332.25447  20961031.1384   20961030.3494   20961033.7004
   2291830.69546   1776437.14745  25143675.0754   25143676.0804   25143684.4724
    717876.40847    557018.43246  23375675.3294   23375675.7294   23375678.0594
  -5495329.53347  -4259731.68945  24588534.0724   24588533.5294   24588540.0654
   1167987.66748    907002.58146  22574275.3874   22574275.3944   22574280.2114
  -1017762.40948   -786850.58046  22188530.5894   22188530.5714   22188534.9524
  -2324634.02549  -1633104.93247  20309300.5424   20309300.1474   20309304.5324
 97  6 10  3  2  8.0000000  0  7G21G17G23G25G 3G31G 1
   -915558.42949   -708837.36947  20960907.7714   20960906.9004   20960910.4314
   2293895.33146   1778045.95544  25144067.9964   25144070.5204   25144077.3984
    718545.71947    557539.96746  23375802.8524   23375803.5244   23375805.3124
  -5500133.90547  -4263475.35145  24587619.8964   24587619.2834   24587626.1164
   1169215.70048    907959.48946  22574509.0164   22574508.9744   22574514.2294
  -1018276.58248   -787251.23646  22188432.5924   22188432.6104   22188436.9464
  -2326297.59449  -1634401.22047  20308983.9544   20308983.5094   20308987.8974
 97  6 10  3  2  9.0000000  0  7G21G17G23G25G 3G31G 1
   -916206.44949   -709342.32047  20960784.4494   20960783.6714   20960787.2354
   2295960.06046   1779654.84345  25144460.8864   25144464.2494   25144470.5984
    719215.05047    558061.51946  23375930.4884   23375930.8804   23375932.6154
  -5504938.32647  -4267219.05245  24586705.7574   24586705.1794   24586711.9404
   1170444.07648    908916.66446  22574742.7414   22574743.1954   22574748.2744
  -1018790.16348   -787651.43346  22188334.6984   22188334.8004   22188339.0624
  -2327960.63749  -1635697.09947  20308667.4964   20308667.1054   20308671.4614
 97  6 10  3  2 10.0000000  0  7G21G17G23G25G 3G31G 1
   -916854.43149   -709847.24347  20960661.1274   20960660.2014   20960663.8274
   2298024.79746   1781263.73245  25144853.5544   25144856.6734   25144863.9854
    719884.27647    558582.99246  23376058.1194   23376058.6494   23376059.5444
  -5509742.90147  -4270962.86745  24585791.5384   24585791.2874   24585797.3574
   1171672.68248    909874.02046  22574976.4604   22574977.2544   22574982.1944
  -1019303.28348   -788051.26746  22188236.9314   22188237.3914   22188241.9844
  -2329623.28649  -1636992.67247  20308351.1294   20308350.7104   20308355.0494
 97  6 10  3  2 11.0000000  0  7G21G17G23G25G 3G31G 1
   -917502.48649   -710352.22247  20960537.8134   20960537.1354   20960540.5644
   2300089.37946   1782872.50045  25145246.0744   25145248.2874   25145256.9724
    720553.28547    559104.30346  23376185.6634   23376186.0814   23376186.5784
  -5514547.78447  -4274706.92645  24584877.3004   24584876.9654   24584883.5034
   1172901.36248    910831.43246  22575210.2214   22575210.5484   22575216.0684
  -1019816.08648   -788450.85646  22188139.3184   22188139.8024   22188145.5604
  -2331285.66649  -1638288.03347  20308034.7954   20308034.3254   20308038.7054
 97  6 10  3  2 12.0000000  0  7G21G17G23G25G 3G31G 1
   -918150.63349   -710857.26947  20960414.4864   20960413.6304   20960417.1324
   2302153.81146   1784481.15345  25145638.5744   25145639.7274   25145649.3564
    721222.04747    559625.41546  23376313.0614   23376313.3244   23376314.0804
  -5519352.97347  -4278451.22845  24583962.9474   24583962.9844   24583969.1814
   1174130.10048    911788.89546  22575444.0074   22575444.3024   22575450.1864
  -1020328.57448   -788850.18746  22188041.7954   22188042.1294   22188047.4584
  -2332947.78749  -1639583.18847  20307718.5254   20307718.0734   20307722.4874
 97  6 10  3  2 13.0000000  0  7G21G17G23G25G 3G31G 1
   -918798.77149   -711362.31347  20960291.1504   20960290.4044   20960293.7744
   2304218.17246   1786089.74645  25146031.1974   25146032.8954   25146041.9024
    721890.68047    560146.43046  23376440.2824   23376440.3004   23376441.3504
  -5524158.36547  -4282195.67645  24583048.5734   24583048.6664   24583055.1654
   1175359.03848    912746.50746  22575677.8484   22575678.1794   22575683.5834
  -1020840.62648   -789249.18946  22187944.3984   22187944.5064   22187950.0494
  -2334609.52949  -1640878.05347  20307402.3414   20307401.8564   20307406.1634
 97  6 10  3  2 14.0000000  0  7G21G17G23G25G 3G31G 1
   -919446.50049   -711867.03847  20960167.8694   20960167.0744   20960170.5204
   2306282.91846   1787698.63545  25146423.8474   25146425.1004   25146435.3604
    722559.57347    560667.64746  23376567.5074   23376567.3074   23376568.4404
  -5528963.60947  -4285940.01845  24582134.1674   24582134.0114   24582140.2554
   1176588.52248    913704.54146  22575911.8744   22575912.3354   22575916.8774
  -1021351.89148   -789647.58446  22187847.2274   22187847.9774   22187851.7974
  -2336270.52649  -1642172.33547  20307086.3084   20307085.6564   20307090.0754
 97  6 10  3  2 15.0000000  0  7G21G17G23G25G 3G31G 1
   -920094.19249   -712371.73847  20960044.6024   20960043.8774   20960047.1894
   2308347.58246   1789307.47045  25146816.5724   25146818.8724   25146828.4924
    723228.33947    561188.76146  23376694.7554   23376694.4374   23376695.7864
  -5533769.03047  -4289684.49745  24581219.7234   24581219.3684   24581225.6894
   1177818.19748    914662.72646  22576145.8904   22576146.8154   22576151.3374
  -1021862.71348   -790045.63746  22187750.1634   22187750.7544   22187754.6474
  -2337931.13649  -1643466.31847  20306770.3794   20306769.6904   20306774.1944
 97  6 10  3  2 16.0000000  0  7G21G17G23G25G 3G31G 1
   -920741.52149   -712876.15147  20959921.4274   20959920.7644   20959924.0564
   2310412.54846   1790916.53445  25147209.2434   25147211.6434   25147221.3254
    723897.30947    561710.03646  23376822.1214   23376822.0004   23376822.9024
  -5538574.32947  -4293428.88045  24580305.3624   24580305.2414   24580310.5204
   1179048.39148    915621.31846  22576380.0184   22576379.9854   22576385.0534
  -1022372.76348   -790443.07546  22187653.2044   22187653.4414   22187657.8244
  -2339591.05449  -1644759.75947  20306454.5324   20306453.8954   20306458.3874
 97  6 10  3  2 17.0000000  0  7G21G17G23G25G 3G31G 1
   -921388.36349   -713380.18247  20959798.3454   20959797.6524   20959801.0004
   2312477.93546   1792525.92345  25147602.0914   25147603.9644   25147615.3274
    724566.62047    562231.57846  23376949.5474   23376949.2734   23376949.8154
  -5543379.38647  -4297173.07745  24579391.0324   24579391.0574   24579396.0064
   1180279.20748    916580.40046  22576614.2904   22576614.3434   22576618.9284
  -1022881.93448   -790839.83146  22187556.3584   22187556.4204   22187561.2384
  -2341250.13449  -1646052.54847  20306138.8134   20306138.0904   20306142.6704
 97  6 10  3  2 18.0000000  0  7G21G17G23G25G 3G31G 1
   -922034.25049   -713883.46947  20959675.4114   20959674.7794   20959678.1644
   2314544.16646   1794135.97544  25147995.2964   25147997.0554   25148007.7574
    725236.71647    562753.72846  23377077.1144   23377076.8094   23377077.4904
  -5548183.72547  -4300916.71345  24578476.8174   24578476.9794   24578482.6304
   1181511.12048    917540.33746  22576848.7344   22576849.0434   22576853.5484
  -1023389.76648   -791235.54046  22187459.8504   22187459.8584   22187464.1084
  -2342907.93049  -1647344.33747  20305823.3204   20305822.6544   20305827.1324
 97  6 10  3  2 19.0000000  0  7G21G17G23G25G 3G31G 1
   -922679.83049   -714386.51847  20959552.5174   20959551.7324   20959555.3254
   2316610.70046   1795746.26444  25148388.5974   25148390.3984   25148401.0024
    725906.96648    563276.00146  23377204.7144   23377204.2614   23377205.1914
  -5552987.95347  -4304660.26845  24577562.6074   24577563.1024   24577568.7094
   1182743.50448    918500.63146  22577083.2544   22577083.7654   22577088.3614
  -1023896.89148   -791630.70746  22187363.4094   22187363.3254   22187368.7504
  -2344565.07449  -1648635.61747  20305507.9374   20305507.1834   20305511.6874
 97  6 10  3  2 20.0000000  0  7G21G17G23G25G 3G31G 1
   -923325.38149   -714889.54847  20959429.6184   20959429.0204   20959432.5404
   2318677.13146   1797356.47044  25148781.5464   25148784.2634   25148794.6764
    726577.09148    563798.17246  23377332.3224   23377332.0674   23377332.8574
  -5557792.39747  -4308403.98545  24576648.3354   24576648.5684   24576654.6344
   1183976.05148    919461.05546  22577317.7474   22577318.2414   22577322.7894
  -1024403.61948   -792025.56746  22187266.9954   22187267.6154   22187272.2254
  -2346221.85649  -1649926.61747  20305192.5834   20305192.1144   20305196.3294
 97  6 10  3  2 21.0000000  0  7G21G17G23G25G 3G31G 1
   -923970.98249   -715392.61347  20959306.7184   20959306.0214   20959309.5244
   2320743.46846   1798966.60244  25149174.2494   25149177.4274   25149187.3174
    727247.00948    564320.18446  23377459.9474   23377459.5494   23377460.2954
  -5562597.11247  -4312147.91445  24575734.0414   24575734.2034   24575739.9764
   1185208.70148    920421.55746  22577552.3164   22577552.4074   22577557.1554
  -1024909.98448   -792420.13746  22187170.5874   22187170.8784   22187174.6384
  -2347878.34749  -1651217.39047  20304877.3244   20304876.7964   20304881.2274
 97  6 10  3  2 22.0000000  0  7G21G17G23G25G 3G31G 1
   -924616.92949   -715895.95047  20959183.7724   20959183.1794   20959186.6354
   2322809.40346   1800576.42544  25149567.2554   25149570.8424   25149579.7174
    727916.41548    564841.80046  23377587.3594   23377586.4054   23377588.0824
  -5567402.37747  -4315892.27545  24574819.6414   24574820.0404   24574825.1774
   1186441.16948    921381.92646  22577786.8804   22577787.2684   22577791.9884
  -1025416.30648   -792814.67246  22187074.1854   22187074.8854   22187078.4924
  -2349534.86649  -1652508.18447  20304562.0564   20304561.6314   20304566.1304
 97  6 10  3  2 23.0000000  0  7G21G17G23G25G 3G31G 1
   -925262.84549   -716399.25947  20959060.8584   20959060.4734   20959063.7854
   2324875.26246   1802186.18844  25149960.3264   25149963.1104   25149972.5714
    728585.71648    565363.33546  23377714.8014   23377713.6114   23377715.3884
  -5572207.85047  -4319636.79445  24573905.2134   24573905.1964   24573910.3534
   1187673.81348    922342.43246  22578021.4834   22578021.4594   22578026.3594
  -1025922.21248   -793208.88346  22186977.8104   22186977.3544   22186982.6134
  -2351191.01349  -1653798.68847  20304246.8584   20304246.3274   20304250.7964
 97  6 10  3  2 24.0000000  0  7G21G17G23G25G 3G31G 1
   -925908.67149   -716902.50347  20958937.9564   20958937.5184   20958940.9104
   2326941.16946   1803795.98344  25150353.4444   25150356.3754   25150365.7524
    729254.93648    565884.80746  23377842.2024   23377841.2084   23377843.1014
  -5577013.45847  -4323381.42145  24572990.6984   24572990.7664   24572995.8344
   1188906.69548    923303.11946  22578256.1574   22578256.4224   22578261.3714
  -1026427.64148   -793602.72646  22186881.6364   22186881.3264   22186886.4494
  -2352846.74049  -1655088.86447  20303931.7554   20303931.2234   20303935.7704
 97  6 10  3  2 25.0000000  0  7G21G17G23G25G 3G31G 1
   -926554.06949   -717405.40947  20958815.1604   20958814.5484   20958818.1204
   2329007.41246   1805406.04044  25150746.5394   25150749.3934   25150759.3204
    729924.43448    566406.49546  23377969.6634   23377968.4914   23377971.0504
  -5581818.80347  -4327125.83945  24572076.2754   24572076.9494   24572080.5894
   1190140.20148    924264.29046  22578490.9444   22578491.2664   22578496.1514
  -1026932.23048   -793995.90846  22186785.5854   22186786.0664   22186790.1684
  -2354501.68449  -1656378.42747  20303616.8194   20303616.4574   20303620.9634
 97  6 10  3  2 26.0000000  0  7G21G17G23G25G 3G31G 1
   -927199.40049   -717908.26647  20958692.3784   20958691.7474   20958695.2264
   2331073.69846   1807016.12844  25151139.6174   25151140.4794   25151152.2204
    730593.83248    566928.09946  23378097.0814   23378095.9504   23378098.6614
  -5586624.34147  -4330870.40745  24571161.8574   24571162.5214   24571166.0294
   1191373.90748    925225.62446  22578725.7904   22578725.5494   22578730.3744
  -1027436.36248   -794388.74246  22186689.7294   22186689.7864   22186694.1664
  -2356156.23849  -1657667.69347  20303301.9994   20303301.5554   20303306.0684
 97  6 10  3  2 27.0000000  0  7G21G17G23G25G 3G31G 1
   -927844.43749   -718410.89347  20958569.5984   20958568.8714   20958572.3114
   2333140.15046   1808626.34744  25151532.4804   25151533.3804   25151546.2884
    731263.37448    567449.82046  23378224.4224   23378223.6734   23378225.8034
  -5591429.81947  -4334614.93645  24570247.3784   24570247.4404   24570251.5574
   1192608.06148    926187.30246  22578960.6904   22578960.4864   22578965.8834
  -1027939.80648   -794781.04046  22186593.9844   22186593.9414   22186598.0384
  -2357810.15249  -1658956.45547  20302987.3144   20302986.6254   20302991.3214
 97  6 10  3  2 28.0000000  0  7G21G17G23G25G 3G31G 1
   -928488.94849   -718913.11047  20958446.9284   20958446.3924   20958449.9174
   2335207.06146   1810236.92944  25151925.6424   25151927.5044   25151939.5334
    731933.29148    567971.83246  23378351.8664   23378351.0134   23378353.4244
  -5596234.95047  -4338359.19145  24569332.9714   24569332.6104   24569337.0274
   1193842.93948    927149.54446  22579195.7014   22579195.4364   22579200.7494
  -1028442.30148   -795172.59646  22186498.4544   22186498.6254   22186502.5814
  -2359463.18449  -1660244.53347  20302672.7854   20302672.1884   20302676.8244
 97  6 10  3  2 29.0000000  0  7G21G17G23G25G 3G31G 1
   -929132.80449   -719414.81747  20958324.4084   20958323.8804   20958327.4684
   2337274.57046   1811847.97644  25152318.8044   25152321.9174   25152332.7034
    732603.71848    568494.24346  23378479.4564   23378478.2114   23378480.9414
  -5601039.66647  -4342103.12645  24568418.6984   24568418.5364   24568423.3204
   1195078.61248    928112.40646  22579430.9334   22579430.2834   22579435.1494
  -1028943.74948   -795563.33546  22186403.1264   22186402.7204   22186407.7934
  -2361115.22349  -1661531.83447  20302358.4314   20302357.8154   20302362.3564
 97  6 10  3  2 30.0000000  0  7G21G17G23G25G 3G31G 1
   -929776.38249   -719916.30647  20958201.9354   20958201.3734   20958205.1034
   2339342.31246   1813459.20144  25152712.2414   25152715.3974   25152726.5974
    733274.27548    569016.75246  23378607.0364   23378605.8764   23378608.2744
  -5605844.32647  -4345847.01745  24567504.3694   24567504.1524   24567508.8824
   1196314.72548    929075.61046  22579666.2874   22579666.2864   22579670.5394
  -1029444.53648   -795953.56046  22186307.9694   22186307.9664   22186312.3914
  -2362766.64649  -1662818.65747  20302044.1804   20302043.5544   20302048.1084
 97  6 10  3  2 31.0000000  0  7G21G17G23G25G 3G31G 1
   -930420.03549   -720417.85647  20958079.4474   20958078.9514   20958082.5774
   2341409.94046   1815070.33644  25153105.7314   25153108.5894   25153120.1744
    733944.63048    569539.10746  23378734.5814   23378733.3784   23378735.5054
  -5610649.25547  -4349591.11845  24566590.0854   24566590.3064   24566594.9524
   1197550.96548    930038.91146  22579901.6354   22579901.4074   22579905.7364
  -1029944.99448   -796343.52646  22186212.8354   22186212.7624   22186217.2404
  -2364417.77449  -1664105.25347  20301729.9794   20301729.4114   20301733.9784
 97  6 10  3  2 32.0000000  0  7G21G17G23G25G 3G31G 1
   -931063.64749   -720919.37347  20957956.9434   20957956.4274   20957960.2804
   2343477.49246   1816681.41444  25153499.2524   25153501.6704   25153513.1044
    734614.89648    570061.38846  23378862.1414   23378861.6384   23378862.9414
  -5615454.38247  -4353335.36945  24565675.7274   24565675.9734   24565680.7794
   1198787.39548    931002.36246  22580137.0674   22580136.5194   22580141.8324
  -1030445.01348   -796733.15346  22186117.7454   22186117.4034   22186122.6024
  -2366068.51549  -1665391.54747  20301415.8174   20301415.2504   20301419.8064
 97  6 10  3  2 33.0000000  0  7G21G17G23G25G 3G31G 1
   -931707.60649   -721421.16047  20957834.3554   20957833.8544   20957837.5654
   2345544.66246   1818292.19344  25153892.5934   25153895.0934   25153905.5984
    735284.66348    570583.28046  23378989.5434   23378988.8144   23378990.4964
  -5620260.08947  -4357080.07545  24564761.2524   24564761.6544   24564766.6964
   1200023.62448    931965.65446  22580372.4804   22580371.7244   22580376.9644
  -1030944.98648   -797122.74446  22186022.6234   22186022.6414   22186026.5984
  -2367719.27349  -1666677.85247  20301101.6604   20301101.1734   20301105.6034
 97  6 10  3  2 34.0000000  0  7G21G17G23G25G 3G31G 1
   -932351.58849   -721922.96647  20957711.7994   20957711.3004   20957715.0534
   2347611.77546   1819902.92744  25154285.8554   25154287.4934   25154298.9584
    735954.28548    571105.06146  23379116.8894   23379115.8114   23379118.0004
  -5625066.00047  -4360824.94045  24563846.7674   24563847.7144   24563851.9744
   1201260.04548    932929.09946  22580607.8984   22580607.2374   22580612.2904
  -1031444.58448   -797512.04546  22185927.6024   22185927.8584   22185932.0544
  -2369369.67449  -1667963.87947  20300787.5574   20300787.1024   20300791.6894
 97  6 10  3  2 35.0000000  0  7G21G17G23G25G 3G31G 1
   -932995.46049   -722424.68347  20957589.2984   20957588.8364   20957592.7574
   2349678.90246   1821513.68244  25154679.0404   25154680.4174   25154691.4724
    736623.85348    571626.80246  23379244.2634   23379242.5834   23379245.1394
  -5629872.07047  -4364569.92745  24562932.3024   24562933.0714   24562937.5194
   1202496.72548    933892.74646  22580843.2784   22580842.3914   22580847.3814
  -1031943.67748   -797900.95046  22185832.6724   22185832.5984   22185837.0234
  -2371019.64549  -1669249.57147  20300473.5584   20300473.1564   20300477.6104
 97  6 10  3  2 36.0000000  0  7G21G17G23G25G 3G31G 1
   -933639.02349   -722926.16047  20957466.8744   20957466.4204   20957470.2004
   2351746.26846   1823124.61444  25155072.0284   25155074.2564   25155085.8074
    737293.59148    572148.67546  23379371.5904   23379369.9194   23379372.2814
  -5634678.06447  -4368314.85945  24562017.7704   24562018.6124   24562023.1214
   1203733.88348    934856.75746  22581078.7664   22581078.2684   22581082.1774
  -1032442.07548   -798289.30846  22185737.8594   22185737.1654   22185742.1074
  -2372668.95349  -1670534.74647  20300159.6604   20300159.1654   20300163.7364
 97  6 10  3  2 37.0000000  0  7G21G17G23G25G 3G31G 1
   -934282.49449   -723427.56647  20957344.4404   20957343.9534   20957347.7144
   2353813.67146   1824735.57544  25155464.9274   25155466.5564   25155479.1134
    737963.29248    572670.51946  23379498.8704   23379497.1694   23379499.4574
  -5639484.16447  -4372059.86945  24561103.2254   24561103.2894   24561108.4244
   1204971.32248    935820.99046  22581314.2794   22581313.8214   22581318.1564
  -1032939.99148   -798677.29646  22185643.1474   22185642.5224   22185647.7694
  -2374317.83749  -1671819.59047  20299845.9214   20299845.5814   20299849.9924
 97  6 10  3  2 38.0000000  0  7G21G17G23G25G 3G31G 1
   -934925.45349   -723928.57247  20957222.1164   20957221.6464   20957225.3654
   2355881.52846   1826346.89444  25155858.5604   25155859.8454   25155873.0994
    738633.38248    573192.66846  23379626.2464   23379624.7274   23379626.6014
  -5644289.97047  -4375804.65145  24560188.7154   24560188.4974   24560193.8024
   1206209.44948    936785.75946  22581549.9264   22581549.3124   22581553.3474
  -1033437.00048   -799064.57346  22185548.6354   22185548.2594   22185552.9424
  -2375965.86549  -1673103.76847  20299532.3764   20299531.9184   20299536.5194
 97  6 10  3  2 39.0000000  0  7G21G17G23G25G 3G31G 1
   -935567.91149   -724429.19147  20957099.8714   20957099.2374   20957103.1444
   2357949.83146   1827958.55744  25156252.0924   25156253.7684   25156264.3184
    739303.84248    573715.10046  23379753.7814   23379752.1634   23379754.4754
  -5649095.52047  -4379549.23345  24559274.2444   24559273.7354   24559279.2734
   1207448.25148    937751.06146  22581785.6874   22581784.8894   22581788.9264
  -1033933.11548   -799451.15646  22185454.3474   22185454.0574   22185458.4134
  -2377613.04749  -1674387.28647  20299219.0094   20299218.5564   20299223.1544
 97  6 10  3  2 40.0000000  0  7G21G17G23G25G 3G31G 1
   -936209.71549   -724929.29847  20956977.7324   20956976.9204   20956981.1164
   2360018.73246   1829570.68744  25156645.8734   25156648.4794   25156658.1414
    739974.83848    574237.94946  23379881.3334   23379880.0734   23379882.5424
  -5653900.60347  -4383293.45045  24558359.8754   24558358.5244   24558364.4644
   1208687.89548    938717.01246  22582021.5664   22582020.9274   22582025.0824
  -1034428.16448   -799836.91246  22185360.2254   22185359.7024   22185364.5354
  -2379259.22049  -1675670.01747  20298905.8414   20298905.2704   20298909.8564
 97  6 10  3  2 41.0000000  0  7G21G17G23G25G 3G31G 1
   -936850.89049   -725428.91547  20956855.6994   20956855.2784   20956858.9534
   2362088.18246   1831183.24444  25157039.8534   25157041.4364   25157051.8714
    740646.31848    574761.18346  23380009.0354   23380008.1064   23380009.9514
  -5658705.30747  -4387037.36845  24557445.5784   24557444.0674   24557449.4184
   1209928.30048    939683.56346  22582257.5874   22582257.1844   22582261.6434
  -1034922.19848   -800221.87646  22185266.3054   22185265.7234   22185269.6994
  -2380904.43249  -1676952.00047  20298592.8294   20298592.1764   20298596.6734
 97  6 10  3  2 42.0000000  0  7G21G17G23G25G 3G31G 1
   -937492.22849   -725928.66247  20956733.6654   20956733.1914   20956736.9804
   2364157.43146   1832795.65044  25157434.1964   25157435.1034   25157445.1314
    741317.47448    575284.15746  23380136.6974   23380136.2444   23380137.9684
  -5663510.40147  -4390781.59545  24556531.1924   24556529.4214   24556535.4434
   1211168.69848    940650.10346  22582493.5934   22582492.9744   22582497.6144
  -1035416.01648   -800606.67646  22185172.3744   22185171.4774   22185176.0504
  -2382549.48749  -1678233.86147  20298279.8644   20298279.1114   20298283.6364
 97  6 10  3  2 43.0000000  0  7G21G17G23G25G 3G31G 1
   -938133.91149   -726428.67647  20956611.5714   20956611.0694   20956614.7834
   2366226.24046   1834407.70544  25157828.2184   25157829.5274   25157839.6414
    741988.15448    575806.76346  23380264.2584   23380264.0724   23380265.8984
  -5668316.04047  -4394526.25045  24555616.7124   24555615.2824   24555621.3414
   1212408.91148    941616.50046  22582729.5874   22582728.5094   22582733.5294
  -1035909.79148   -800991.43746  22185078.4464   22185077.9244   22185082.0294
  -2384194.56949  -1679515.74247  20297966.8814   20297966.1834   20297970.6664
 97  6 10  3  2 44.0000000  0  7G21G17G23G25G 3G31G 1
   -938775.59949   -726928.69047  20956489.4654   20956488.8714   20956492.7124
   2368294.98546   1836019.71344  25158222.1564   25158222.9014   25158233.4684
    742658.69348    576329.26146  23380391.8194   23380391.9074   23380393.2104
  -5673121.93747  -4398271.10345  24554702.2494   24554700.7964   24554706.7814
   1213649.26848    942583.01546  22582965.5704   22582964.6934   22582969.0854
  -1036403.17548   -801375.89546  22184984.6374   22184984.0644   22184987.6694
  -2385839.31849  -1680797.36247  20297653.9284   20297653.0694   20297657.4894
 97  6 10  3  2 45.0000000  0  7G21G17G23G25G 3G31G 1
   -939417.37449   -727428.77547  20956367.3594   20956366.5604   20956370.6174
   2370363.55746   1837631.58544  25158615.9894   25158616.6464   25158626.7094
    743328.99748    576851.57346  23380519.3754   23380519.6994   23380520.7664
  -5677928.15847  -4402016.20645  24553787.6904   24553786.4634   24553791.9904
   1214889.68848    943549.57646  22583201.5374   22583200.6364   22583204.8684
  -1036896.25648   -801760.11646  22184890.8394   22184890.1404   22184894.2564
  -2387483.81949  -1682078.79247  20297341.0234   20297340.1354   20297344.6494
 97  6 10  3  2 46.0000000  0  7G21G17G23G25G 3G31G 1
   -940058.90349   -727928.66847  20956245.2794   20956244.5204   20956248.6504
   2372432.35946   1839243.64144  25159009.7524   25159010.3134   25159020.3924
    743999.41748    577373.97446  23380647.0014   23380646.9864   23380648.4904
  -5682734.33847  -4405761.28145  24552873.1564   24552872.1174   24552877.4504
   1216130.50348    944516.44046  22583437.5904   22583437.1844   22583441.0124
  -1037388.71048   -802143.84746  22184797.1594   22184795.9024   22184800.4694
  -2389127.78249  -1683359.80247  20297028.1674   20297027.2304   20297031.8604
 97  6 10  3  2 47.0000000  0  7G21G17G23G25G 3G31G 1
   -940700.50049   -728428.61447  20956123.1514   20956122.3334   20956126.5704
   2374500.94946   1840855.52844  25159403.6324   25159403.4324   25159413.6224
    744669.62248    577896.21046  23380774.5754   23380775.0604   23380776.3834
  -5687540.83547  -4409506.60145  24551958.5894   24551957.4674   24551962.7704
   1217371.39448    945483.36846  22583673.6904   22583673.1764   22583677.1524
  -1037880.85348   -802527.33146  22184703.4654   22184703.0074   22184706.9354
  -2390771.50049  -1684640.62347  20296715.3654   20296714.3894   20296719.0074
 97  6 10  3  2 48.0000000  0  7G21G17G23G25G 3G31G 1
   -941341.61449   -728928.18647  20956001.1794   20956000.6724   20956004.6624
   2376570.00146   1842467.78044  25159797.4394   25159797.6454   25159807.5184
    745340.17848    578418.72146  23380902.2794   23380902.5754   23380903.5294
  -5692347.07447  -4413251.71645  24551044.0224   24551043.3394   24551048.0154
   1218612.90848    946450.78246  22583909.8504   22583909.1224   22583913.9174
  -1038372.12648   -802910.14046  22184609.9264   22184609.2924   22184613.7024
  -2392414.36949  -1685920.78047  20296402.6774   20296401.8614   20296406.4014
 97  6 10  3  2 49.0000000  0  7G21G17G23G25G 3G31G 1
   -941982.39149   -729427.49247  20955879.2654   20955878.6004   20955882.4864
   2378639.27046   1844080.19644  25160191.6494   25160191.8184   25160201.2864
    746010.93348    578941.38546  23381030.0794   23381030.1814   23381031.5754
  -5697153.19447  -4416996.74345  24550129.5324   24550129.1214   24550133.4904
   1219854.89648    947418.57246  22584146.1534   22584146.0554   22584150.4864
  -1038862.69648   -803292.40346  22184516.5144   22184515.5554   22184520.6044
  -2394056.61249  -1687200.44847  20296090.1454   20296089.2414   20296093.8704
 97  6 10  3  2 50.0000000  0  7G21G17G23G25G 3G31G 1
   -942622.59749   -729926.35247  20955757.4344   20955756.6014   20955760.7784
   2380709.05746   1845693.02044  25160585.8724   25160585.4504   25160594.9654
    746682.11548    579464.38046  23381157.8754   23381157.4864   23381159.5874
  -5701959.00147  -4420741.52445  24549215.0754   24549214.9764   24549218.5064
   1221097.57248    948386.88846  22584382.5934   22584382.3664   22584386.5754
  -1039352.34248   -803673.94446  22184423.3094   22184422.5454   22184426.9804
  -2395697.97649  -1688479.43447  20295777.7984   20295777.0754   20295781.6164
 97  6 10  3  2 51.0000000  0  7G21G17G23G25G 3G31G 1
   -943262.08849   -730424.65847  20955635.7124   20955635.0374   20955639.0834
   2382779.42446   1847306.29244  25160979.9024   25160978.9194   25160988.9014
    747353.86848    579987.82746  23381285.7124   23381285.0094   23381287.4044
  -5706764.33547  -4424485.93745  24548300.7124   24548300.2434   24548304.5584
   1222341.09848    949355.86446  22584619.1664   22584618.8184   22584623.5014
  -1039840.90048   -804054.63946  22184330.3694   22184329.7504   22184333.8944
  -2397338.30949  -1689757.61447  20295465.6514   20295464.8304   20295469.5034
 97  6 10  3  2 52.0000000  0  7G21G17G23G25G 3G31G 1
   -943900.91849   -730922.44847  20955514.1744   20955513.4104   20955517.6134
   2384850.35346   1848920.00244  25161374.0104   25161372.9304   25161383.1034
    748026.13448    580511.66846  23381413.6134   23381413.3104   23381415.4764
  -5711569.25047  -4428230.02445  24547386.4604   24547386.1054   24547390.2114
   1223585.41148    950325.45446  22584855.9074   22584855.5594   22584860.4984
  -1040328.44648   -804434.55046  22184237.6254   22184237.1974   22184240.8114
  -2398977.67949  -1691035.04547  20295153.6204   20295152.6754   20295157.5094
 97  6 10  3  2 53.0000000  0  7G21G17G23G25G 3G31G 1
   -944539.98249   -731420.42047  20955392.4894   20955392.0944   20955395.9224
   2386920.94046   1850533.44544  25161767.7394   25161768.1764   25161777.5314
    748698.01848    581035.21646  23381541.4994   23381541.2854   23381543.0674
  -5716374.64047  -4431974.47845  24546472.1384   24546471.3754   24546475.8494
   1224829.61848    951294.96146  22585092.6854   22585092.8224   22585097.5224
  -1040815.86948   -804814.35746  22184144.9054   22184144.2794   22184148.7784
  -2400616.96249  -1692312.40747  20294841.6864   20294840.9434   20294845.2944
 97  6 10  3  2 54.0000000  0  7G21G17G23G25G 3G31G 1
   -945179.30649   -731918.59547  20955270.8054   20955270.3634   20955274.2164
   2388991.20146   1852146.63444  25162161.3084   25162161.9424   25162171.3004
    749369.49548    581558.44246  23381669.2974   23381669.3334   23381670.9264
  -5721180.55447  -4435719.34245  24545557.7664   24545556.8724   24545561.5794
   1226073.67648    952264.36146  22585329.3914   22585329.7504   22585334.4854
  -1041303.20048   -805194.09546  22184052.2044   22184051.6284   22184056.0284
  -2402256.19949  -1693589.73547  20294529.6914   20294528.8314   20294533.3384
 97  6 10  3  2 55.0000000  0  7G21G17G23G25G 3G31G 1
   -945818.59749   -732416.74347  20955149.1184   20955148.6064   20955152.5944
   2391061.34646   1853759.73244  25162554.5274   25162555.6284   25162565.5044
    750040.86248    582081.58046  23381797.1154   23381796.9194   23381798.4874
  -5725986.68447  -4439464.37245  24544643.3004   24544641.8834   24544646.7894
   1227317.88848    953233.88046  22585566.1104   22585566.0094   22585570.4954
  -1041790.12648   -805573.52146  22183959.5524   22183958.7604   22183963.4074
  -2403895.10049  -1694866.79947  20294217.7514   20294216.8624   20294221.6764
 97  6 10  3  2 56.0000000  0  7G21G17G23G25G 3G31G 1
   -946457.97749   -732914.96447  20955027.4394   20955026.8994   20955030.9194
   2393131.32956   1855372.70644  25162948.0254   25162949.8554   25162960.0824
    750711.99548    582604.54246  23381924.8134   23381924.6264   23381925.9864
  -5730793.17447  -4443209.68245  24543728.7154   24543727.8044   24543732.2334
   1228562.13448    954203.42046  22585802.8074   22585802.4674   22585807.2174
  -1042276.78148   -805952.73846  22183866.9684   22183866.2704   22183870.7464
  -2405533.77149  -1696143.68547  20293905.8774   20293904.9884   20293909.9984
 97  6 10  3  2 57.0000000  0  7G21G17G23G25G 3G31G 1
   -947097.07049   -733412.95747  20954905.7694   20954905.3164   20954909.2294
   2395201.43546   1856985.77244  25163341.4984   25163344.0944   25163354.9244
    751383.26448    583127.61146  23382052.4624   23382051.7594   23382053.7164
  -5735599.64547  -4446954.97945  24542814.1124   24542813.0864   24542817.7084
   1229806.77148    955173.26746  22586039.5894   22586039.2704   22586044.0924
  -1042762.79748   -806331.44746  22183774.4744   22183773.5904   22183778.1274
  -2407171.83349  -1697420.09547  20293594.1274   20293593.3324   20293598.1664
 97  6 10  3  2 58.0000000  0  7G21G17G23G25G 3G31G 1
   -947735.91449   -733910.75647  20954784.1504   20954783.6714   20954787.7134
   2397271.73746   1858598.99544  25163735.0754   25163738.3874   25163748.6064
    752054.64248    583650.76346  23382180.0764   23382179.6764   23382181.2274
  -5740406.14647  -4450700.30045  24541899.4944   24541898.9904   24541902.9144
   1231051.78248    956143.40946  22586276.4954   22586276.8354   22586281.5484
  -1043248.21648   -806709.69846  22183682.0944   22183681.5894   22183686.3854
  -2408809.33949  -1698696.07447  20293282.4464   20293281.8634   20293286.5634
 97  6 10  3  2 59.0000000  0  7G21G17G23G25G 3G31G 1
   -948374.51549   -734408.36747  20954662.6054   20954662.0044   20954666.2454
   2399342.12846   1860212.28144  25164128.6374   25164131.3704   25164143.5834
    752726.11048    584173.98846  23382307.7554   23382307.0914   23382309.1294
  -5745212.68247  -4454445.64645  24540984.8764   24540984.3844   24540988.8964
   1232297.13748    957113.80946  22586513.4744   22586513.8604   22586517.9594
  -1043733.05548   -807087.49446  22183589.7234   22183588.5174   22183594.0774
  -2410446.29249  -1699971.62347  20292970.8794   20292970.1424   20292975.0194
 97  6 10  3  3  0.0000000  0  7G21G17G23G25G 3G31G 1
   -949012.57649   -734905.55947  20954541.1374   20954540.5034   20954544.9064
   2401412.91856   1861825.88344  25164522.3584   25164524.8784   25164536.5454
    753397.96048    584697.50746  23382435.6204   23382435.0214   23382437.0414
  -5750018.97247  -4458190.80245  24540070.2804   24540069.2314   24540074.0204
   1233543.12948    958084.71246  22586750.5624   22586751.0624   22586754.8974
  -1044216.99248   -807464.58646  22183497.5364   22183496.2194   22183501.6554
  -2412082.40649  -1701246.51747  20292659.4594   20292658.9114   20292663.5584
 97  6 10  3  3  1.0000000  0  7G21G17G23G25G 3G31G 1
   -949650.09049   -735402.32647  20954419.7734   20954419.4304   20954423.5794
   2403484.19446   1863439.86144  25164915.9554   25164918.4064   25164930.6764
    754070.20148    585221.32346  23382563.5364   23382562.6294   23382564.8834
  -5754824.98647  -4461935.74245  24539155.6484   24539154.4114   24539159.4384
   1234789.78348    959056.13546  22586987.8554   22586987.9304   22586992.2654
  -1044700.05248   -807840.99046  22183405.6194   22183405.3884   22183409.3794
  -2413717.65749  -1702520.74047  20292348.2264   20292347.9084   20292352.4714
 97  6 10  3  3  2.0000000  0  7G21G17G23G25G 3G31G 1
   -950286.92849   -735898.56247  20954298.5624   20954298.1694   20954302.2844
   2405556.02446   1865054.27044  25165309.8974   25165312.1794   25165325.7094
    754742.96248    585745.55246  23382691.5864   23382691.3744   23382692.8554
  -5759630.60547  -4465680.37545  24538241.1104   24538240.0594   24538244.6504
   1236037.21248    960028.15646  22587225.2794   22587224.6644   22587229.7104
  -1045182.09548   -808216.61446  22183313.8584   22183312.8274   22183317.4534
  -2415351.92749  -1703794.19647  20292037.1944   20292036.8044   20292041.4934
 97  6 10  3  3  3.0000000  0  7G21G17G23G25G 3G31G 1
   -950923.59249   -736394.66547  20954177.3774   20954176.8084   20954181.0694
   2407627.86846   1866668.69444  25165703.9794   25165706.1084   25165720.8324
    755415.72348    586269.78146  23382819.6764   23382819.5344   23382820.8164
  -5764436.33747  -4469425.09845  24537326.4884   24537325.3194   24537330.5974
   1237284.90448    961000.38546  22587462.7014   22587461.9364   22587467.2894
  -1045663.60648   -808591.82346  22183222.2894   22183221.4594   22183225.9344
  -2416985.70549  -1705067.27147  20291726.2874   20291726.0484   20291730.5094
 97  6 10  3  3  4.0000000  0  7G21G17G23G25G 3G31G 1
   -951560.33049   -736890.82647  20954056.1694   20954055.9204   20954060.1354
   2409699.53046   1868282.97445  25166098.0124   25166100.6304   25166114.9544
    756088.24048    586793.81846  23382947.6564   23382948.0674   23382948.7094
  -5769242.44847  -4473170.11745  24536411.7654   24536410.7754   24536416.2604
   1238532.61948    961972.62846  22587700.1864   22587699.7504   22587705.6074
  -1046144.89548   -808966.85146  22183130.6824   22183129.7534   22183135.1564
  -2418619.26649  -1706340.17547  20291415.4654   20291415.1674   20291419.7054
 97  6 10  3  3  5.0000000  0  7G21G17G23G25G 3G31G 1
   -952196.90249   -737386.85347  20953934.9914   20953934.7034   20953939.1164
   2411771.20146   1869897.25845  25166492.1144   25166495.4264   25166510.3814
    756760.75048    587317.85246  23383075.6744   23383075.6894   23383076.5414
  -5774048.67047  -4476915.22745  24535496.9884   24535495.8024   24535502.2244
   1239780.58248    962945.07346  22587937.6384   22587937.1964   22587943.5194
  -1046625.65548   -809341.46446  22183039.1394   22183038.4184   22183043.2514
  -2420252.34849  -1707612.70347  20291104.7474   20291104.2734   20291108.8064
 97  6 10  3  3  6.0000000  0  7G21G17G23G25G 3G31G 1
   -952833.76049   -737883.10947  20953813.7934   20953813.6134   20953817.9244
   2413842.45646   1871511.21845  25166886.5124   25166889.3784   25166904.1854
    757432.83148    587841.55046  23383203.6354   23383203.8564   23383204.6854
  -5778855.48547  -4480660.79545  24534582.1964   24534581.1904   24534587.2244
   1241028.35748    963917.35946  22588175.0394   22588174.5484   22588180.0934
  -1047106.36748   -809716.05146  22182947.6554   22182946.8184   22182952.1724
  -2421885.39449  -1708885.20847  20290794.0224   20290793.6374   20290798.2094
 97  6 10  3  3  7.0000000  0  7G21G17G23G25G 3G31G 1
   -953470.50049   -738379.27147  20953692.6154   20953692.2844   20953696.6844
   2415913.67946   1873125.15444  25167280.7994   25167284.2014   25167299.8234
    758104.82148    588365.17446  23383331.5524   23383331.6954   23383332.9854
  -5783662.48847  -4484406.50845  24533667.3864   24533666.2554   24533672.5104
   1242276.32148    964889.79846  22588412.4394   22588412.1884   22588417.4084
  -1047586.64848   -810090.29846  22182856.2184   22182855.0494   22182860.0404
  -2423518.04649  -1710157.40447  20290483.3404   20290482.9534   20290487.3854
 97  6 10  3  3  8.0000000  0  7G21G17G23G25G 3G31G 1
   -954107.02649   -738875.26347  20953571.5014   20953571.2984   20953575.4414
   2417985.00846   1874739.17044  25167675.2364   25167678.6374   25167694.0344
    758776.86748    588888.84946  23383459.5394   23383459.2504   23383460.8094
  -5788469.56947  -4488152.28645  24532752.5464   24532751.5684   24532757.6394
   1243524.58348    965862.47046  22588649.8604   22588649.7504   22588654.5004
  -1048066.38048   -810464.10846  22182764.8744   22182763.7384   22182768.8804
  -2425150.17449  -1711429.18947  20290172.8124   20290172.2984   20290176.8174
 97  6 10  3  3  9.0000000  0  7G21G17G23G25G 3G31G 1
   -954743.16149   -739370.95647  20953450.4954   20953450.2064   20953454.5524
   2420056.59246   1876353.38344  25168069.8144   25168073.4054   25168088.1754
    759449.14648    589412.70246  23383587.5594   23383586.3304   23383588.5964
  -5793276.54147  -4491897.98245  24531837.7574   24531836.7354   24531842.6434
   1244773.32348    966835.50746  22588887.4034   22588887.7044   22588892.4474
  -1048545.38248   -810837.36146  22182673.6974   22182673.1384   22182677.7954
  -2426781.59849  -1712700.43147  20289862.3634   20289861.7714   20289866.4414
 97  6 10  3  3 10.0000000  0  7G21G17G23G25G 3G31G 1
   -955379.00749   -739866.41847  20953329.5174   20953329.0594   20953333.3574
   2422128.29746   1877967.69344  25168464.1564   25168466.8794   25168482.6584
    760121.51648    589936.63046  23383715.5044   23383714.6984   23383715.9174
  -5798083.53247  -4495643.68645  24530922.9554   24530921.5424   24530927.2334
   1246022.42248    967808.82846  22589125.0374   22589125.1884   22589130.0424
  -1049023.79348   -811210.15246  22182582.5974   22182581.7524   22182587.0204
  -2428412.44649  -1713971.22047  20289552.0084   20289551.6094   20289556.1644
 97  6 10  3  3 11.0000000  0  7G21G17G23G25G 3G31G 1
   -956014.40149   -740361.53047  20953208.6194   20953208.2884   20953212.4254
   2424200.38746   1879582.30144  25168859.1234   25168861.9044   25168877.9264
    760794.17248    590460.76946  23383843.5964   23383842.6594   23383844.6104
  -5802890.36647  -4499389.27145  24530008.2244   24530006.7814   24530012.8784
   1247272.06048    968782.56646  22589362.8364   22589362.4074   22589368.4894
  -1049501.41848   -811582.32946  22182491.7024   22182490.0214   22182495.8514
  -2430042.53549  -1715241.41947  20289241.7984   20289241.3174   20289245.9034
 97  6 10  3  3 12.0000000  0  7G21G17G23G25G 3G31G 1
   -956649.12349   -740856.12247  20953087.8654   20953087.4654   20953091.8994
   2426272.89146   1881197.23244  25169253.9624   25169256.0524   25169274.3104
    761467.33748    590985.31146  23383971.6584   23383970.5854   23383972.5124
  -5807696.81147  -4503134.55445  24529093.6284   24529092.0874   24529098.1974
   1248522.44948    969756.89646  22589600.8254   22589599.7594   22589605.7984
  -1049978.04648   -811953.72746  22182400.9844   22182400.1164   22182405.2924
  -2431671.64749  -1716510.85747  20288931.7844   20288931.4594   20288935.8294
 97  6 10  3  3 13.0000000  0  7G21G17G23G25G 3G31G 1
   -957283.13649   -741350.15547  20952967.2274   20952966.6364   20952971.1404
   2428346.05746   1882812.68344  25169649.2054   25169651.6184   25169668.9904
    762141.02048    591510.26346  23384099.8324   23384097.8144   23384101.4214
  -5812502.85947  -4506879.51745  24528179.0864   24528177.9744   24528183.4434
   1249773.61348    970731.83346  22589838.9834   22589838.4464   22589843.9674
  -1050453.67448   -812324.34446  22182310.3924   22182309.6714   22182314.6954
  -2433299.74249  -1717779.50347  20288621.9754   20288621.6324   20288626.1094
 97  6 10  3  3 14.0000000  0  7G21G17G23G25G 3G31G 1
   -957916.81049   -741843.93047  20952846.6394   20952846.0474   20952850.6364
   2430419.34446   1884428.22744  25170044.0714   25170046.0234   25170063.4844
    762814.86648    592035.33646  23384227.9784   23384226.7134   23384229.3434
  -5817308.87447  -4510624.46145  24527264.5544   24527263.4254   24527268.7904
   1251025.19148    971707.09146  22590077.2254   22590076.9644   22590081.9064
  -1050928.65048   -812694.46246  22182219.9204   22182219.1984   22182224.3884
  -2434927.20849  -1719047.65947  20288312.3024   20288312.0174   20288316.5394
 97  6 10  3  3 15.0000000  0  7G21G17G23G25G 3G31G 1
   -958550.67149   -742337.84747  20952726.0334   20952725.5724   20952729.8734
   2432492.33246   1886043.53444  25170439.0534   25170440.0364   25170458.4644
    763488.35748    592560.13746  23384356.0264   23384355.1654   23384358.2224
  -5822115.38747  -4514369.79745  24526349.9094   24526348.8834   24526354.1024
   1252276.65548    972682.25646  22590315.4654   22590314.6774   22590320.2404
  -1051403.47848   -813064.46046  22182129.4784   22182129.3804   22182134.0554
  -2436554.56149  -1720315.72647  20288002.6474   20288002.2304   20288006.8204
 97  6 10  3  3 16.0000000  0  7G21G17G23G25G 3G31G 1
   -959184.78649   -742831.96247  20952605.4064   20952604.7954   20952609.1314
   2434564.95946   1887658.56644  25170833.5304   25170835.3154   25170850.2624
    764161.43448    593084.60846  23384484.0404   23384482.7254   23384486.1234
  -5826922.45947  -4518115.56845  24525435.1774   24525433.7784   24525439.1224
   1253527.95648    973657.29346  22590553.6314   22590552.8324   22590558.5224
  -1051878.25548   -813434.41746  22182039.0504   22182038.8774   22182043.8234
  -2438181.86749  -1721583.75747  20287692.9954   20287692.6374   20287697.1054
 97  6 10  3  3 17.0000000  0  7G21G17G23G25G 3G31G 1
   -959818.85749   -743326.04447  20952484.7264   20952484.0494   20952488.5274
   2436637.48846   1889273.51144  25171228.0234   25171230.3094   25171244.6224
    764834.40448    593609.00046  23384611.9184   23384611.2294   23384614.2214
  -5831729.76747  -4521861.52145  24524520.4164   24524519.0254   24524525.0434
   1254779.39748    974632.44146  22590791.8374   22590791.0764   22590796.2444
  -1052352.65548   -813804.07646  22181948.7454   22181948.4404   22181953.7394
  -2439808.82949  -1722851.52147  20287383.4264   20287383.0774   20287387.4864
 97  6 10  3  3 18.0000000  0  7G21G17G23G25G 3G31G 1
   -960452.89149   -743820.09747  20952364.0464   20952363.5104   20952367.9444
   2438709.93046   1890888.39544  25171622.6254   25171625.9624   25171639.1144
    765507.27448    594133.31246  23384739.7414   23384738.8274   23384742.6444
  -5836537.32647  -4525607.66545  24523605.6304   24523604.1634   24523610.2264
   1256030.96548    975607.68746  22591029.9634   22591029.0384   22591034.7464
  -1052826.69348   -814173.45746  22181858.5494   22181858.4464   22181863.2904
  -2441435.43949  -1724119.00847  20287073.8824   20287073.5414   20287077.9144
 97  6 10  3  3 19.0000000  0  7G21G17G23G25G 3G31G 1
   -961086.48549   -744313.80647  20952243.4844   20952242.8364   20952247.5154
   2440782.74046   1892503.56544  25172017.2634   25172021.1084   25172033.5964
    766180.43648    594657.84646  23384867.7514   23384867.2974   23384870.8454
  -5841344.74647  -4529353.70245  24522690.9174   24522689.1614   24522695.0634
   1257283.06448    976583.34746  22591268.2084   22591267.1494   22591273.3754
  -1053300.00148   -814542.26446  22181768.4744   22181768.5964   22181773.1284
  -2443061.34449  -1725385.94547  20286764.5014   20286764.1634   20286768.6064
 97  6 10  3  3 20.0000000  0  7G21G17G23G25G 3G31G 1
   -961719.96949   -744807.42847  20952122.9604   20952122.3734   20952126.7444
   2442855.48846   1894118.68944  25172411.6614   25172415.2604   25172428.1424
    766853.55248    595182.35146  23384995.8024   23384994.8044   23384998.9314
  -5846152.33747  -4533099.87645  24521776.0684   24521774.2964   24521780.3794
   1258535.38848    977559.18246  22591506.4424   22591506.2914   22591511.7314
  -1053772.84248   -814910.71046  22181678.5244   22181678.1814   22181683.5704
  -2444686.81749  -1726652.54647  20286455.1614   20286454.6614   20286459.2474
 97  6 10  3  3 21.0000000  0  7G21G17G23G25G 3G31G 1
   -962353.08949   -745300.76847  20952002.4624   20952001.8104   20952006.2854
   2444928.47946   1895734.00044  25172806.1634   25172810.1844   25172822.6904
    767526.89848    595707.03046  23385123.9234   23385122.4734   23385127.3474
  -5850959.84847  -4536845.98445  24520861.2324   24520860.0914   24520865.3254
   1259788.17048    978535.37546  22591744.7694   22591744.2484   22591748.9664
  -1054244.98648   -815278.61546  22181588.7114   22181588.5364   22181592.8564
  -2446311.61349  -1727918.62147  20286146.0094   20286145.6004   20286150.0124
 97  6 10  3  3 22.0000000  0  7G21G17G23G25G 3G31G 1
   -962985.65049   -745793.67347  20951882.1134   20951881.5024   20951886.0074
   2447001.91146   1897349.65144  25173200.8724   25173204.4854   25173218.0944
    768200.65248    596232.02546  23385252.0484   23385251.6964   23385255.1844
  -5855767.12347  -4540591.91345  24519946.3524   24519945.9334   24519950.3474
   1261041.59748    979512.06846  22591983.1824   22591983.2674   22591987.8884
  -1054716.29048   -815645.87746  22181499.1254   22181499.0334   22181503.3974
  -2447935.58349  -1729184.05547  20285837.0074   20285836.6974   20285841.0244
 97  6 10  3  3 23.0000000  0  7G21G17G23G25G 3G31G 1
   -963617.42249   -746285.96147  20951761.8904   20951761.3764   20951765.8244
   2449076.05546   1898965.86545  25173595.6674   25173599.1844   25173612.7354
    768875.05948    596757.53846  23385380.2864   23385380.1674   23385383.3484
  -5860573.88347  -4544337.43445  24519031.6314   24519031.1634   24519035.7154
   1262295.91448    980489.45446  22592221.7744   22592221.2934   22592226.6214
  -1055186.45448   -816012.23646  22181409.7214   22181409.6894   22181414.7784
  -2449558.44849  -1730448.62347  20285528.1704   20285527.7814   20285532.3614
 97  6 10  3  3 24.0000000  0  7G21G17G23G25G 3G31G 1
   -964248.72849   -746777.89047  20951641.7474   20951641.1634   20951645.5554
   2451150.50546   1900582.31444  25173990.7004   25173993.7214   25174006.9414
    769549.79548    597283.30146  23385508.7034   23385508.3934   23385511.7164
  -5865380.46947  -4548082.82345  24518116.9344   24518116.2524   24518121.6364
   1263550.81048    981467.29946  22592460.4934   22592460.5254   22592466.3024
  -1055655.81248   -816377.96846  22181320.3794   22181320.3894   22181325.5654
  -2451180.52649  -1731712.58147  20285219.5454   20285219.0764   20285223.6244
 97  6 10  3  3 25.0000000  0  7G21G17G23G25G 3G31G 1
   -964880.05149   -747269.83247  20951521.6264   20951521.0814   20951525.6074
   2453224.82246   1902198.66245  25174385.5404   25174388.1504   25174400.6004
    770224.36348    597808.94446  23385637.0564   23385636.5854   23385639.7804
  -5870187.34147  -4551828.43345  24517202.1584   24517201.6414   24517206.8954
   1264805.80448    982445.21546  22592699.2484   22592699.7484   22592704.7584
  -1056124.86948   -816743.46646  22181231.0644   22181231.1564   22181235.8044
  -2452802.31549  -1732976.31147  20284910.9694   20284910.2904   20284915.1294
 97  6 10  3  3 26.0000000  0  7G21G17G23G25G 3G31G 1
   -965511.80649   -747762.11147  20951401.4544   20951400.9874   20951405.1784
   2455298.61646   1903814.60544  25174780.4864   25174783.8734   25174794.8434
    770898.36848    598334.14446  23385765.2564   23385765.1774   23385768.5104
  -5874994.92847  -4555574.60545  24516287.2224   24516286.9424   24516291.6444
   1266060.45348    983422.86746  22592937.9574   22592938.4884   22592942.5054
  -1056594.02448   -817109.04046  22181141.7564   22181141.3444   22181146.4134
  -2454424.22349  -1734240.13547  20284602.3694   20284601.8194   20284606.2354
 97  6 10  3  3 27.0000000  0  7G21G17G23G25G 3G31G 1
   -966143.66449   -748254.46647  20951281.2144   20951280.5884   20951284.9324
   2457372.18446   1905430.36644  25175175.1574   25175177.0214   25175187.3264
    771572.13148    598859.15646  23385893.3444   23385892.7074   23385896.1824
  -5879802.89347  -4559321.06645  24515372.2234   24515371.9214   24515376.6884
   1267315.11148    984400.52346  22593176.6644   22593177.0294   22593181.4714
  -1057062.92348   -817474.42246  22181052.4864   22181052.0254   22181056.9574
  -2456045.89749  -1735503.77647  20284293.7994   20284293.2504   20284297.7364
 97  6 10  3  3 28.0000000  0  7G21G17G23G25G 3G31G 1
   -966775.70549   -748746.96647  20951160.9664   20951160.3534   20951164.6824
   2459445.41346   1907045.86244  25175569.6844   25175571.3204   25175581.7714
    772245.55048    599383.89546  23386021.3754   23386020.9314   23386024.3944
  -5884611.33747  -4563067.90645  24514457.0884   24514456.6864   24514462.3004
   1268569.66048    985378.09546  22593415.3594   22593415.0184   22593420.4164
  -1057531.70248   -817839.70246  22180963.2244   22180962.5254   22180967.7834
  -2457667.47449  -1736767.34447  20283985.2074   20283984.6064   20283989.0904
 97  6 10  3  3 29.0000000  0  7G21G17G23G25G 3G31G 1
   -967407.31649   -749239.12847  20951040.8124   20951040.3104   20951044.6184
   2461518.92146   1908661.58044  25175964.2864   25175967.1994   25175976.5474
    772919.25048    599908.85846  23386149.5114   23386149.0044   23386152.7764
  -5889419.62447  -4566814.61545  24513542.0804   24513542.0744   24513547.2604
   1269824.73248    986356.07446  22593654.1744   22593654.3154   22593659.0674
  -1057999.70048   -818204.37546  22180874.1024   22180873.7144   22180879.1264
  -2459288.28949  -1738030.31447  20283676.7484   20283676.0364   20283680.8754
 97  6 10  3  3 30.0000000  0  7G21G17G23G25G 3G31G 1
   -968038.70749   -749731.11947  20950920.6544   20950919.9984   20950924.4694
   2463592.56246   1910277.40044  25176358.9124   25176361.2894   25176371.8724
    773593.02148    600433.87246  23386277.6264   23386277.5994   23386280.7774
  -5894227.98947  -4570561.39145  24512627.0144   24512626.6054   24512632.1104
   1271080.11248    987334.29246  22593893.0854   22593893.1264   22593897.9504
  -1058467.15048   -818568.62346  22180785.0384   22180784.3784   22180789.9394
  -2460908.58249  -1739292.88047  20283368.3794   20283367.7934   20283372.3264
 97  6 10  3  3 31.0000000  0  7G21G17G23G25G 3G31G 1
   -968669.69949   -750222.79947  20950800.5884   20950799.7984   20950804.3144
   2465666.42446   1911893.39245  25176753.4674   25176755.7144   25176766.9154
    774267.02248    600959.06746  23386405.7704   23386404.9874   23386409.0904
  -5899036.24847  -4574308.08545  24511711.9124   24511711.9574   24511717.4164
   1272335.96748    988312.87746  22594132.0634   22594131.8444   22594136.9334
  -1058933.87548   -818932.29846  22180696.1624   22180696.2594   22180701.0234
  -2462528.16549  -1740554.89147  20283060.1364   20283059.7364   20283064.0884
 97  6 10  3  3 32.0000000  0  7G21G17G23G25G 3G31G 1
   -969300.01849   -750713.95847  20950680.6564   20950679.7684   20950684.5504
   2467740.81746   1913509.79845  25177148.1894   25177150.5004   25177161.5894
    774941.53148    601484.65246  23386533.9484   23386533.1554   23386537.5444
  -5903844.11947  -4578054.47545  24510796.9404   24510797.5294   24510802.2634
   1273592.57948    989292.05446  22594371.1804   22594370.2714   22594376.7674
  -1059399.57348   -819295.18146  22180607.4684   22180608.2124   22180612.7634
  -2464146.77249  -1741816.14447  20282752.0694   20282751.5814   20282756.1374
 97  6 10  3  3 33.0000000  0  7G21G17G23G25G 3G31G 1
   -969929.97949   -751204.83547  20950560.7734   20950560.0244   20950564.7224
   2469815.42246   1915126.37145  25177542.9104   25177544.9774   25177555.6334
    775616.22248    602010.38146  23386662.2594   23386661.7694   23386666.4574
  -5908651.92447  -4581800.81245  24509881.9064   24509881.8294   24509886.8844
   1274849.61948    990271.56946  22594610.4084   22594610.0454   22594615.5784
  -1059864.59948   -819657.54046  22180518.9884   22180518.8584   22180524.0544
  -2465764.72549  -1743076.88547  20282444.1504   20282443.8274   20282448.3794
